Wetterdaten: aktuell Donnerstag, 25.04.2024 16:50
Datum Zeit Temp. Aussen Temp. o. S. Temp +5cm Feuchte Auss Luftdruck Regen Sonnenschein Regendauer Solar Windben Empfang
25.04.2024 16:50 9,9 C 10,6 C 6,7 C 64 % 1004,7 hPa 0,0 l/m 2 min 0 min 307 W/m 12,9 km/h (3 Bft) 100,00 %
25.04.2024 16:48 9,9 C 10,6 C 6,7 C 64 % 1004,8 hPa 0,0 l/m 2 min 0 min 288 W/m 19,3 km/h (3 Bft) 100,00 %
25.04.2024 16:46 9,8 C 10,6 C 6,1 C 64 % 1004,8 hPa 0,0 l/m 0 min 0 min 276 W/m 12,9 km/h (3 Bft) 100,00 %
25.04.2024 16:44 9,8 C 10,6 C 6,1 C 65 % 1004,9 hPa 0,0 l/m 0 min 0 min 271 W/m 19,3 km/h (3 Bft) 100,00 %
25.04.2024 16:42 9,8 C 10,6 C 6,1 C 65 % 1004,9 hPa 0,0 l/m 0 min 0 min 267 W/m 19,3 km/h (3 Bft) 100,00 %
25.04.2024 16:40 9,7 C 10,0 C 6,1 C 65 % 1004,9 hPa 0,0 l/m 0 min 0 min 275 W/m 12,9 km/h (3 Bft) 100,00 %
25.04.2024 16:38 9,7 C 10,0 C 6,1 C 64 % 1005,0 hPa 0,0 l/m 2 min 0 min 298 W/m 22,5 km/h (4 Bft) 97,87 %
25.04.2024 16:36 9,7 C 10,0 C 6,1 C 64 % 1005,0 hPa 0,0 l/m 2 min 0 min 313 W/m 22,5 km/h (4 Bft) 100,00 %
25.04.2024 16:34 9,7 C 10,0 C 6,1 C 64 % 1005,0 hPa 0,0 l/m 2 min 0 min 306 W/m 25,7 km/h (4 Bft) 100,00 %
25.04.2024 16:32 9,7 C 10,0 C 6,1 C 65 % 1005,0 hPa 0,0 l/m 2 min 0 min 303 W/m 22,5 km/h (4 Bft) 97,87 %
25.04.2024 16:30 9,7 C 10,6 C 6,1 C 66 % 1005,1 hPa 0,0 l/m 2 min 0 min 302 W/m 29,0 km/h (5 Bft) 100,00 %
25.04.2024 16:28 9,7 C 10,6 C 6,1 C 65 % 1005,1 hPa 0,0 l/m 0 min 0 min 300 W/m 22,5 km/h (4 Bft) 100,00 %
25.04.2024 16:26 9,6 C 10,6 C 6,1 C 66 % 1005,2 hPa 0,0 l/m 2 min 0 min 314 W/m 12,9 km/h (3 Bft) 100,00 %
25.04.2024 16:24 9,6 C 10,6 C 6,1 C 66 % 1005,2 hPa 0,0 l/m 2 min 0 min 346 W/m 16,1 km/h (3 Bft) 95,74 %
25.04.2024 16:22 9,5 C 10,6 C 6,1 C 66 % 1005,2 hPa 0,0 l/m 2 min 0 min 362 W/m 25,7 km/h (4 Bft) 100,00 %
25.04.2024 16:20 9,4 C 10,6 C 6,1 C 66 % 1005,2 hPa 0,0 l/m 2 min 0 min 380 W/m 16,1 km/h (3 Bft) 100,00 %
25.04.2024 16:18 9,4 C 10,0 C 6,1 C 66 % 1005,2 hPa 0,0 l/m 2 min 0 min 357 W/m 22,5 km/h (4 Bft) 100,00 %
25.04.2024 16:16 9,4 C 10,6 C 6,1 C 67 % 1005,4 hPa 0,0 l/m 2 min 0 min 333 W/m 22,5 km/h (4 Bft) 100,00 %
25.04.2024 16:14 9,3 C 10,6 C 6,1 C 68 % 1005,3 hPa 0,0 l/m 2 min 0 min 334 W/m 22,5 km/h (4 Bft) 100,00 %
25.04.2024 16:12 9,3 C 10,6 C 6,1 C 70 % 1005,3 hPa 0,0 l/m 2 min 0 min 350 W/m 12,9 km/h (3 Bft) 97,87 %
25.04.2024 16:10 9,2 C 10,6 C 6,1 C 70 % 1005,3 hPa 0,0 l/m 2 min 0 min 374 W/m 12,9 km/h (3 Bft) 100,00 %
25.04.2024 16:08 9,1 C 10,6 C 6,1 C 71 % 1005,4 hPa 0,0 l/m 2 min 0 min 391 W/m 6,4 km/h (2 Bft) 95,74 %
25.04.2024 16:06 9,0 C 10,6 C 6,1 C 70 % 1005,4 hPa 0,0 l/m 2 min 0 min 383 W/m 6,4 km/h (2 Bft) 100,00 %
25.04.2024 16:04 8,9 C 10,0 C 5,6 C 70 % 1005,4 hPa 0,0 l/m 2 min 0 min 377 W/m 12,9 km/h (3 Bft) 100,00 %
25.04.2024 16:02 8,9 C 9,4 C 5,6 C 70 % 1005,5 hPa 0,0 l/m 0 min 0 min 316 W/m 9,7 km/h (2 Bft) 93,62 %
25.04.2024 16:00 8,8 C 9,4 C 5,0 C 71 % 1005,5 hPa 0,0 l/m 0 min 0 min 265 W/m 12,9 km/h (3 Bft) 100,00 %
25.04.2024 15:58 8,8 C 8,9 C 5,0 C 71 % 1005,5 hPa 0,0 l/m 0 min 0 min 213 W/m 12,9 km/h (3 Bft) 95,74 %
25.04.2024 15:56 8,8 C 8,9 C 5,0 C 71 % 1005,6 hPa 0,0 l/m 0 min 0 min 174 W/m 16,1 km/h (3 Bft) 97,83 %
25.04.2024 15:54 8,8 C 8,9 C 5,0 C 71 % 1005,6 hPa 0,0 l/m 0 min 0 min 153 W/m 12,9 km/h (3 Bft) 100,00 %
25.04.2024 15:52 8,8 C 8,9 C 5,0 C 71 % 1005,6 hPa 0,0 l/m 0 min 0 min 133 W/m 9,7 km/h (2 Bft) 100,00 %
25.04.2024 15:50 8,8 C 8,9 C 5,0 C 71 % 1005,7 hPa 0,0 l/m 0 min 0 min 112 W/m 16,1 km/h (3 Bft) 100,00 %
25.04.2024 15:48 8,8 C 8,3 C 5,0 C 71 % 1005,7 hPa 0,0 l/m 0 min 0 min 112 W/m 12,9 km/h (3 Bft) 97,87 %
25.04.2024 15:46 8,8 C 8,9 C 5,0 C 70 % 1005,7 hPa 0,0 l/m 0 min 0 min 147 W/m 19,3 km/h (3 Bft) 97,87 %
25.04.2024 15:44 8,8 C 8,9 C 5,6 C 71 % 1005,8 hPa 0,0 l/m 0 min 0 min 190 W/m 22,5 km/h (4 Bft) 97,83 %
25.04.2024 15:42 8,8 C 8,9 C 5,6 C 71 % 1005,8 hPa 0,0 l/m 0 min 0 min 217 W/m 16,1 km/h (3 Bft) 97,87 %
25.04.2024 15:40 8,8 C 8,9 C 5,6 C 71 % 1005,8 hPa 0,0 l/m 0 min 0 min 225 W/m 16,1 km/h (3 Bft) 97,87 %
25.04.2024 15:38 8,8 C 8,9 C 5,6 C 71 % 1005,9 hPa 0,0 l/m 0 min 0 min 220 W/m 29,0 km/h (5 Bft) 93,62 %
25.04.2024 15:36 8,8 C 8,9 C 5,0 C 71 % 1005,9 hPa 0,0 l/m 0 min 0 min 223 W/m 19,3 km/h (3 Bft) 95,74 %
25.04.2024 15:34 8,8 C 8,9 C 5,0 C 70 % 1006,0 hPa 0,0 l/m 0 min 0 min 214 W/m 22,5 km/h (4 Bft) 95,74 %
25.04.2024 15:32 8,9 C 8,9 C 5,6 C 71 % 1005,9 hPa 0,0 l/m 0 min 0 min 198 W/m 12,9 km/h (3 Bft) 95,65 %
25.04.2024 15:30 8,9 C 8,9 C 5,6 C 71 % 1005,9 hPa 0,0 l/m 0 min 0 min 187 W/m 19,3 km/h (3 Bft) 93,62 %
25.04.2024 15:28 9,0 C 8,9 C 5,6 C 71 % 1005,9 hPa 0,0 l/m 0 min 0 min 186 W/m 19,3 km/h (3 Bft) 93,62 %
25.04.2024 15:26 9,1 C 9,4 C 5,6 C 72 % 1005,9 hPa 0,0 l/m 0 min 0 min 195 W/m 16,1 km/h (3 Bft) 95,74 %
25.04.2024 15:24 9,1 C 9,4 C 5,6 C 72 % 1005,9 hPa 0,0 l/m 0 min 0 min 211 W/m 19,3 km/h (3 Bft) 95,74 %
25.04.2024 15:22 9,1 C 9,4 C 5,6 C 71 % 1005,9 hPa 0,0 l/m 0 min 0 min 216 W/m 12,9 km/h (3 Bft) 95,74 %
25.04.2024 15:20 9,1 C 9,4 C 5,6 C 70 % 1005,8 hPa 0,0 l/m 0 min 0 min 208 W/m 16,1 km/h (3 Bft) 93,48 %
25.04.2024 15:18 9,2 C 9,4 C 5,6 C 70 % 1005,9 hPa 0,0 l/m 0 min 0 min 194 W/m 19,3 km/h (3 Bft) 93,62 %
25.04.2024 15:16 9,3 C 9,4 C 5,6 C 70 % 1005,9 hPa 0,0 l/m 0 min 0 min 179 W/m 16,1 km/h (3 Bft) 91,49 %
25.04.2024 15:14 9,3 C 9,4 C 5,6 C 70 % 1005,8 hPa 0,0 l/m 0 min 0 min 171 W/m 12,9 km/h (3 Bft) 93,62 %
25.04.2024 15:12 9,3 C 9,4 C 5,6 C 70 % 1005,9 hPa 0,0 l/m 0 min 0 min 166 W/m 16,1 km/h (3 Bft) 91,49 %
25.04.2024 15:10 9,3 C 9,4 C 5,6 C 70 % 1005,9 hPa 0,0 l/m 0 min 0 min 165 W/m 12,9 km/h (3 Bft) 93,48 %
25.04.2024 15:08 9,2 C 9,4 C 5,6 C 70 % 1005,9 hPa 0,0 l/m 0 min 0 min 163 W/m 16,1 km/h (3 Bft) 91,49 %
25.04.2024 15:06 9,2 C 9,4 C 5,6 C 69 % 1005,9 hPa 0,0 l/m 0 min 0 min 162 W/m 19,3 km/h (3 Bft) 91,49 %
25.04.2024 15:04 9,3 C 9,4 C 5,6 C 70 % 1005,9 hPa 0,0 l/m 0 min 0 min 150 W/m 19,3 km/h (3 Bft) 95,35 %
25.04.2024 15:02 9,3 C 9,4 C 5,6 C 72 % 1005,9 hPa 0,0 l/m 0 min 0 min 137 W/m 19,3 km/h (3 Bft) 91,49 %
25.04.2024 15:00 9,3 C 9,4 C 5,6 C 71 % 1005,9 hPa 0,0 l/m 0 min 0 min 122 W/m 12,9 km/h (3 Bft) 95,74 %
25.04.2024 14:58 9,2 C 9,4 C 5,6 C 71 % 1005,9 hPa 0,0 l/m 0 min 0 min 126 W/m 19,3 km/h (3 Bft) 95,65 %
25.04.2024 14:56 9,3 C 9,4 C 6,1 C 72 % 1005,9 hPa 0,0 l/m 0 min 0 min 137 W/m 19,3 km/h (3 Bft) 95,74 %
25.04.2024 14:54 9,3 C 10,0 C 6,1 C 74 % 1005,9 hPa 0,0 l/m 0 min 0 min 167 W/m 16,1 km/h (3 Bft) 93,62 %
25.04.2024 14:52 9,2 C 10,0 C 6,1 C 73 % 1005,9 hPa 0,0 l/m 0 min 0 min 217 W/m 12,9 km/h (3 Bft) 93,62 %
25.04.2024 14:50 9,1 C 10,0 C 6,1 C 73 % 1005,9 hPa 0,0 l/m 0 min 0 min 260 W/m 16,1 km/h (3 Bft) 93,62 %
25.04.2024 14:48 9,1 C 10,0 C 6,1 C 74 % 1005,9 hPa 0,0 l/m 0 min 0 min 289 W/m 12,9 km/h (3 Bft) 91,49 %
25.04.2024 14:46 9,0 C 9,4 C 6,1 C 74 % 1005,9 hPa 0,0 l/m 0 min 0 min 311 W/m 12,9 km/h (3 Bft) 95,65 %
25.04.2024 14:44 8,9 C 10,0 C 6,1 C 74 % 1006,0 hPa 0,0 l/m 2 min 0 min 389 W/m 16,1 km/h (3 Bft) 93,62 %
25.04.2024 14:42 8,9 C 10,0 C 6,1 C 74 % 1005,9 hPa 0,0 l/m 2 min 0 min 396 W/m 12,9 km/h (3 Bft) 97,87 %
25.04.2024 14:40 8,8 C 10,6 C 6,1 C 75 % 1006,0 hPa 0,0 l/m 2 min 0 min 426 W/m 16,1 km/h (3 Bft) 97,87 %
25.04.2024 14:38 8,7 C 10,6 C 6,1 C 76 % 1006,0 hPa 0,0 l/m 2 min 0 min 469 W/m 12,9 km/h (3 Bft) 95,74 %
25.04.2024 14:36 8,6 C 10,0 C 6,1 C 76 % 1006,0 hPa 0,0 l/m 2 min 0 min 440 W/m 12,9 km/h (3 Bft) 95,74 %
25.04.2024 14:34 8,5 C 10,0 C 5,6 C 77 % 1006,1 hPa 0,0 l/m 2 min 0 min 423 W/m 12,9 km/h (3 Bft) 100,00 %
25.04.2024 14:32 8,3 C 10,0 C 5,6 C 77 % 1006,0 hPa 0,0 l/m 2 min 0 min 412 W/m 6,4 km/h (2 Bft) 100,00 %
25.04.2024 14:30 8,2 C 10,0 C 5,6 C 77 % 1006,1 hPa 0,0 l/m 2 min 0 min 396 W/m 6,4 km/h (2 Bft) 97,87 %
25.04.2024 14:28 8,0 C 9,4 C 5,0 C 76 % 1006,1 hPa 0,0 l/m 2 min 0 min 380 W/m 6,4 km/h (2 Bft) 100,00 %
25.04.2024 14:26 7,9 C 8,9 C 5,0 C 75 % 1006,1 hPa 0,0 l/m 0 min 0 min 357 W/m 6,4 km/h (2 Bft) 100,00 %
25.04.2024 14:24 7,8 C 8,3 C 4,4 C 75 % 1006,1 hPa 0,0 l/m 0 min 0 min 327 W/m 12,9 km/h (3 Bft) 100,00 %
25.04.2024 14:22 7,7 C 8,3 C 4,4 C 75 % 1006,1 hPa 0,0 l/m 0 min 0 min 298 W/m 9,7 km/h (2 Bft) 97,83 %
25.04.2024 14:20 7,6 C 8,3 C 3,9 C 75 % 1006,2 hPa 0,0 l/m 0 min 0 min 271 W/m 19,3 km/h (3 Bft) 97,87 %
25.04.2024 14:18 7,6 C 7,8 C 3,9 C 75 % 1006,2 hPa 0,0 l/m 0 min 0 min 248 W/m 16,1 km/h (3 Bft) 100,00 %
25.04.2024 14:16 7,5 C 7,8 C 3,3 C 75 % 1006,3 hPa 0,0 l/m 0 min 0 min 235 W/m 16,1 km/h (3 Bft) 100,00 %
25.04.2024 14:14 7,4 C 7,8 C 2,8 C 75 % 1006,3 hPa 0,0 l/m 0 min 0 min 227 W/m 12,9 km/h (3 Bft) 100,00 %
25.04.2024 14:12 7,4 C 7,2 C 2,8 C 76 % 1006,3 hPa 0,0 l/m 0 min 0 min 213 W/m 16,1 km/h (3 Bft) 100,00 %
25.04.2024 14:10 7,5 C 7,2 C 2,8 C 77 % 1006,3 hPa 0,0 l/m 0 min 0 min 187 W/m 12,9 km/h (3 Bft) 100,00 %
25.04.2024 14:08 7,6 C 7,2 C 2,8 C 76 % 1006,4 hPa 0,0 l/m 0 min 0 min 158 W/m 0,0 km/h (0 Bft) 100,00 %
25.04.2024 14:06 7,6 C 6,7 C 2,8 C 76 % 1006,3 hPa 0,0 l/m 0 min 0 min 123 W/m 9,7 km/h (2 Bft) 100,00 %
25.04.2024 14:04 7,8 C 6,7 C 2,8 C 76 % 1006,4 hPa 0,0 l/m 0 min 0 min 94 W/m 6,4 km/h (2 Bft) 100,00 %
25.04.2024 14:02 7,9 C 6,7 C 2,8 C 75 % 1006,5 hPa 0,0 l/m 0 min 2 min 75 W/m 12,9 km/h (3 Bft) 97,87 %
25.04.2024 14:00 8,1 C 7,2 C 3,3 C 73 % 1006,5 hPa 0,0 l/m 0 min 2 min 58 W/m 22,5 km/h (4 Bft) 100,00 %
25.04.2024 13:58 8,3 C 7,2 C 3,9 C 73 % 1006,5 hPa 0,0 l/m 0 min 2 min 53 W/m 25,7 km/h (4 Bft) 97,83 %
25.04.2024 13:56 8,6 C 7,8 C 4,4 C 75 % 1006,5 hPa 0,0 l/m 0 min 0 min 61 W/m 16,1 km/h (3 Bft) 95,74 %
25.04.2024 13:54 8,7 C 8,3 C 4,4 C 75 % 1006,4 hPa 0,0 l/m 0 min 0 min 95 W/m 12,9 km/h (3 Bft) 97,87 %
25.04.2024 13:52 8,7 C 8,3 C 4,4 C 74 % 1006,4 hPa 0,0 l/m 0 min 0 min 137 W/m 12,9 km/h (3 Bft) 100,00 %
25.04.2024 13:50 8,8 C 8,3 C 5,0 C 74 % 1006,5 hPa 0,0 l/m 0 min 0 min 150 W/m 25,7 km/h (4 Bft) 100,00 %
25.04.2024 13:48 8,9 C 8,9 C 5,0 C 73 % 1006,4 hPa 0,0 l/m 0 min 2 min 141 W/m 12,9 km/h (3 Bft) 97,87 %
25.04.2024 13:46 8,9 C 8,9 C 5,6 C 72 % 1006,4 hPa 0,0 l/m 0 min 0 min 143 W/m 9,7 km/h (2 Bft) 97,83 %
25.04.2024 13:44 8,8 C 9,4 C 5,6 C 72 % 1006,4 hPa 0,0 l/m 0 min 0 min 168 W/m 12,9 km/h (3 Bft) 97,87 %
25.04.2024 13:42 8,8 C 9,4 C 5,6 C 72 % 1006,4 hPa 0,0 l/m 0 min 0 min 202 W/m 6,4 km/h (2 Bft) 100,00 %
25.04.2024 13:40 8,8 C 9,4 C 5,6 C 72 % 1006,4 hPa 0,0 l/m 0 min 0 min 244 W/m 19,3 km/h (3 Bft) 100,00 %
25.04.2024 13:38 8,7 C 8,9 C 5,6 C 71 % 1006,5 hPa 0,0 l/m 0 min 0 min 268 W/m 16,1 km/h (3 Bft) 100,00 %
25.04.2024 13:36 8,7 C 8,9 C 5,6 C 71 % 1006,4 hPa 0,0 l/m 0 min 0 min 279 W/m 16,1 km/h (3 Bft) 93,62 %
25.04.2024 13:34 8,7 C 8,9 C 5,6 C 71 % 1006,5 hPa 0,0 l/m 0 min 0 min 299 W/m 12,9 km/h (3 Bft) 97,83 %
25.04.2024 13:32 8,6 C 9,4 C 5,6 C 72 % 1006,5 hPa 0,0 l/m 0 min 0 min 312 W/m 12,9 km/h (3 Bft) 97,87 %
25.04.2024 13:30 8,6 C 8,9 C 5,0 C 72 % 1006,4 hPa 0,0 l/m 0 min 0 min 308 W/m 16,1 km/h (3 Bft) 95,74 %
25.04.2024 13:28 8,6 C 8,9 C 5,0 C 73 % 1006,4 hPa 0,0 l/m 0 min 0 min 287 W/m 16,1 km/h (3 Bft) 97,87 %
25.04.2024 13:26 8,6 C 8,9 C 5,0 C 74 % 1006,5 hPa 0,0 l/m 0 min 0 min 247 W/m 16,1 km/h (3 Bft) 97,87 %
25.04.2024 13:24 8,6 C 8,9 C 5,0 C 75 % 1006,5 hPa 0,0 l/m 0 min 0 min 230 W/m 12,9 km/h (3 Bft) 97,83 %
25.04.2024 13:22 8,6 C 8,9 C 5,0 C 75 % 1006,5 hPa 0,0 l/m 0 min 0 min 222 W/m 6,4 km/h (2 Bft) 97,87 %
25.04.2024 13:20 8,6 C 8,9 C 5,0 C 75 % 1006,5 hPa 0,0 l/m 0 min 0 min 217 W/m 12,9 km/h (3 Bft) 97,87 %
25.04.2024 13:18 8,6 C 8,3 C 5,0 C 75 % 1006,5 hPa 0,0 l/m 0 min 0 min 205 W/m 12,9 km/h (3 Bft) 97,87 %
25.04.2024 13:16 8,7 C 8,3 C 5,0 C 76 % 1006,5 hPa 0,0 l/m 0 min 0 min 179 W/m 16,1 km/h (3 Bft) 97,87 %
25.04.2024 13:14 8,7 C 8,3 C 5,0 C 75 % 1006,5 hPa 0,0 l/m 0 min 0 min 158 W/m 12,9 km/h (3 Bft) 93,62 %
25.04.2024 13:12 8,7 C 8,3 C 5,0 C 75 % 1006,5 hPa 0,0 l/m 0 min 0 min 159 W/m 12,9 km/h (3 Bft) 97,83 %
25.04.2024 13:10 8,8 C 8,9 C 5,6 C 75 % 1006,5 hPa 0,0 l/m 0 min 0 min 182 W/m 16,1 km/h (3 Bft) 97,87 %
25.04.2024 13:08 8,8 C 8,9 C 5,6 C 75 % 1006,5 hPa 0,0 l/m 0 min 0 min 213 W/m 16,1 km/h (3 Bft) 97,87 %
25.04.2024 13:06 8,8 C 9,4 C 5,6 C 75 % 1006,5 hPa 0,0 l/m 0 min 0 min 248 W/m 16,1 km/h (3 Bft) 95,92 %
25.04.2024 13:04 8,8 C 9,4 C 5,6 C 75 % 1006,5 hPa 0,0 l/m 0 min 0 min 273 W/m 12,9 km/h (3 Bft) 93,62 %
25.04.2024 13:02 8,8 C 9,4 C 5,6 C 75 % 1006,6 hPa 0,0 l/m 0 min 0 min 286 W/m 12,9 km/h (3 Bft) 97,87 %
25.04.2024 13:00 8,8 C 9,4 C 5,6 C 74 % 1006,6 hPa 0,0 l/m 0 min 0 min 290 W/m 16,1 km/h (3 Bft) 97,83 %
25.04.2024 12:58 8,8 C 9,4 C 6,1 C 75 % 1006,6 hPa 0,0 l/m 0 min 0 min 286 W/m 12,9 km/h (3 Bft) 100,00 %
25.04.2024 12:56 8,8 C 9,4 C 6,1 C 76 % 1006,6 hPa 0,0 l/m 0 min 0 min 294 W/m 19,3 km/h (3 Bft) 97,87 %
25.04.2024 12:54 8,8 C 10,0 C 6,1 C 76 % 1006,6 hPa 0,0 l/m 0 min 0 min 315 W/m 9,7 km/h (2 Bft) 100,00 %
25.04.2024 12:52 8,7 C 9,4 C 6,1 C 77 % 1006,6 hPa 0,0 l/m 0 min 0 min 326 W/m 16,1 km/h (3 Bft) 100,00 %
25.04.2024 12:50 8,6 C 9,4 C 6,1 C 77 % 1006,6 hPa 0,0 l/m 0 min 0 min 333 W/m 12,9 km/h (3 Bft) 97,87 %
25.04.2024 12:48 8,6 C 9,4 C 6,1 C 77 % 1006,6 hPa 0,0 l/m 0 min 0 min 345 W/m 16,1 km/h (3 Bft) 100,00 %
25.04.2024 12:46 8,5 C 10,0 C 6,1 C 78 % 1006,7 hPa 0,0 l/m 0 min 0 min 366 W/m 6,4 km/h (2 Bft) 93,62 %
25.04.2024 12:44 8,3 C 10,0 C 6,1 C 78 % 1006,7 hPa 0,0 l/m 2 min 0 min 414 W/m 12,9 km/h (3 Bft) 97,87 %
25.04.2024 12:42 8,2 C 10,0 C 5,6 C 78 % 1006,7 hPa 0,0 l/m 2 min 0 min 419 W/m 6,4 km/h (2 Bft) 95,74 %
25.04.2024 12:40 8,1 C 9,4 C 5,6 C 78 % 1006,7 hPa 0,0 l/m 2 min 0 min 409 W/m 12,9 km/h (3 Bft) 97,87 %
25.04.2024 12:38 8,1 C 8,9 C 5,0 C 79 % 1006,7 hPa 0,0 l/m 2 min 0 min 399 W/m 16,1 km/h (3 Bft) 95,65 %
25.04.2024 12:36 8,0 C 8,9 C 5,0 C 80 % 1006,7 hPa 0,0 l/m 0 min 0 min 376 W/m 16,1 km/h (3 Bft) 95,74 %
25.04.2024 12:34 8,0 C 8,3 C 5,0 C 80 % 1006,7 hPa 0,0 l/m 0 min 0 min 346 W/m 22,5 km/h (4 Bft) 97,87 %
25.04.2024 12:32 8,1 C 8,3 C 5,0 C 80 % 1006,7 hPa 0,0 l/m 0 min 0 min 324 W/m 25,7 km/h (4 Bft) 97,87 %
25.04.2024 12:30 8,1 C 8,3 C 5,0 C 80 % 1006,7 hPa 0,0 l/m 0 min 0 min 315 W/m 19,3 km/h (3 Bft) 95,74 %
25.04.2024 12:28 8,1 C 8,9 C 5,0 C 81 % 1006,8 hPa 0,0 l/m 0 min 0 min 310 W/m 16,1 km/h (3 Bft) 97,87 %
25.04.2024 12:26 8,1 C 8,9 C 5,0 C 81 % 1006,8 hPa 0,0 l/m 0 min 0 min 308 W/m 16,1 km/h (3 Bft) 97,83 %
25.04.2024 12:24 8,0 C 8,9 C 5,0 C 81 % 1006,8 hPa 0,0 l/m 0 min 0 min 305 W/m 12,9 km/h (3 Bft) 97,87 %
25.04.2024 12:22 7,9 C 8,3 C 5,0 C 81 % 1006,8 hPa 0,0 l/m 0 min 0 min 301 W/m 16,1 km/h (3 Bft) 97,87 %
25.04.2024 12:20 8,0 C 8,3 C 5,0 C 81 % 1006,9 hPa 0,0 l/m 0 min 0 min 303 W/m 19,3 km/h (3 Bft) 97,87 %
25.04.2024 12:18 8,0 C 8,9 C 5,0 C 81 % 1006,9 hPa 0,0 l/m 0 min 0 min 315 W/m 16,1 km/h (3 Bft) 97,87 %
25.04.2024 12:16 8,0 C 8,9 C 5,0 C 81 % 1006,9 hPa 0,0 l/m 0 min 0 min 322 W/m 12,9 km/h (3 Bft) 97,85 %
25.04.2024 12:12 8,0 C 8,3 C 4,4 C 80 % 1006,9 hPa 0,0 l/m 0 min 0 min 302 W/m 16,1 km/h (3 Bft) 97,87 %
25.04.2024 12:10 8,1 C 8,3 C 4,4 C 80 % 1006,9 hPa 0,0 l/m 0 min 0 min 277 W/m 16,1 km/h (3 Bft) 97,87 %
25.04.2024 12:08 8,2 C 7,8 C 4,4 C 79 % 1007,0 hPa 0,0 l/m 0 min 0 min 213 W/m 19,3 km/h (3 Bft) 98,04 %
25.04.2024 12:04 8,5 C 8,3 C 5,0 C 78 % 1006,9 hPa 0,0 l/m 0 min 2 min 149 W/m 19,3 km/h (3 Bft) 97,67 %
25.04.2024 12:02 8,6 C 8,9 C 5,0 C 77 % 1007,0 hPa 0,0 l/m 0 min 2 min 139 W/m 22,5 km/h (4 Bft) 100,00 %
25.04.2024 12:00 8,7 C 9,4 C 5,6 C 77 % 1006,9 hPa 0,0 l/m 0 min 2 min 250 W/m 19,3 km/h (3 Bft) 97,87 %
25.04.2024 11:58 8,7 C 9,4 C 6,1 C 77 % 1006,9 hPa 0,0 l/m 0 min 0 min 257 W/m 12,9 km/h (3 Bft) 97,87 %
25.04.2024 11:56 8,7 C 10,0 C 6,1 C 77 % 1006,9 hPa 0,0 l/m 0 min 0 min 350 W/m 16,1 km/h (3 Bft) 100,00 %
25.04.2024 11:54 8,6 C 10,0 C 6,1 C 77 % 1006,9 hPa 0,0 l/m 2 min 0 min 379 W/m 6,4 km/h (2 Bft) 95,74 %
25.04.2024 11:52 8,6 C 9,4 C 5,6 C 77 % 1006,9 hPa 0,0 l/m 0 min 0 min 330 W/m 12,9 km/h (3 Bft) 93,48 %
25.04.2024 11:50 8,7 C 9,4 C 5,6 C 77 % 1006,9 hPa 0,0 l/m 0 min 0 min 317 W/m 12,9 km/h (3 Bft) 95,74 %
25.04.2024 11:48 8,7 C 9,4 C 6,1 C 77 % 1007,0 hPa 0,0 l/m 0 min 0 min 352 W/m 12,9 km/h (3 Bft) 97,87 %
25.04.2024 11:46 8,7 C 10,0 C 6,1 C 77 % 1007,0 hPa 0,0 l/m 0 min 0 min 318 W/m 12,9 km/h (3 Bft) 95,74 %
25.04.2024 11:44 8,7 C 10,6 C 6,7 C 77 % 1006,9 hPa 0,0 l/m 2 min 0 min 534 W/m 16,1 km/h (3 Bft) 97,87 %
25.04.2024 11:42 8,6 C 11,1 C 6,7 C 78 % 1006,9 hPa 0,0 l/m 2 min 0 min 679 W/m 25,7 km/h (4 Bft) 97,87 %
25.04.2024 11:40 8,6 C 11,1 C 6,7 C 80 % 1007,0 hPa 0,0 l/m 2 min 0 min 456 W/m 25,7 km/h (4 Bft) 87,18 %
25.04.2024 11:38 8,4 C 11,1 C 6,7 C 79 % 1007,0 hPa 0,0 l/m 2 min 0 min 506 W/m 6,4 km/h (2 Bft) 63,83 %
25.04.2024 11:36 8,3 C 10,6 C 6,1 C 78 % 1007,0 hPa 0,0 l/m 2 min 0 min 499 W/m 6,4 km/h (2 Bft) 97,87 %
25.04.2024 11:34 8,3 C 9,4 C 5,6 C 78 % 1007,0 hPa 0,0 l/m 2 min 0 min 410 W/m 12,9 km/h (3 Bft) 97,87 %
25.04.2024 11:32 8,3 C 9,4 C 5,6 C 78 % 1007,0 hPa 0,0 l/m 2 min 0 min 372 W/m 16,1 km/h (3 Bft) 95,74 %
25.04.2024 11:30 8,3 C 10,0 C 6,1 C 79 % 1007,1 hPa 0,0 l/m 2 min 0 min 375 W/m 16,1 km/h (3 Bft) 97,87 %
25.04.2024 11:28 8,3 C 10,6 C 6,1 C 79 % 1007,1 hPa 0,0 l/m 2 min 0 min 470 W/m 19,3 km/h (3 Bft) 95,65 %
25.04.2024 11:26 8,2 C 11,1 C 6,1 C 80 % 1007,1 hPa 0,0 l/m 2 min 0 min 608 W/m 19,3 km/h (3 Bft) 97,87 %
25.04.2024 11:24 8,1 C 10,6 C 5,6 C 81 % 1007,1 hPa 0,0 l/m 2 min 0 min 570 W/m 12,9 km/h (3 Bft) 95,74 %
25.04.2024 11:22 8,0 C 10,6 C 5,6 C 81 % 1007,2 hPa 0,0 l/m 2 min 0 min 518 W/m 9,7 km/h (2 Bft) 93,62 %
25.04.2024 11:20 7,9 C 9,4 C 5,0 C 81 % 1007,2 hPa 0,0 l/m 2 min 0 min 395 W/m 12,9 km/h (3 Bft) 95,74 %
25.04.2024 11:18 7,8 C 8,9 C 5,0 C 81 % 1007,2 hPa 0,0 l/m 0 min 0 min 324 W/m 12,9 km/h (3 Bft) 95,74 %
25.04.2024 11:16 7,7 C 8,9 C 4,4 C 80 % 1007,2 hPa 0,0 l/m 2 min 0 min 395 W/m 12,9 km/h (3 Bft) 95,65 %
25.04.2024 11:14 7,7 C 8,3 C 4,4 C 81 % 1007,3 hPa 0,0 l/m 0 min 0 min 267 W/m 16,1 km/h (3 Bft) 95,74 %
25.04.2024 11:12 7,8 C 8,3 C 4,4 C 81 % 1007,2 hPa 0,0 l/m 0 min 0 min 183 W/m 12,9 km/h (3 Bft) 97,87 %
25.04.2024 11:10 7,8 C 8,3 C 4,4 C 81 % 1007,3 hPa 0,0 l/m 0 min 0 min 185 W/m 12,9 km/h (3 Bft) 95,74 %
25.04.2024 11:08 7,8 C 8,3 C 4,4 C 81 % 1007,3 hPa 0,0 l/m 0 min 0 min 265 W/m 9,7 km/h (2 Bft) 94,29 %
25.04.2024 11:06 7,7 C 8,3 C 4,4 C 81 % 1007,3 hPa 0,0 l/m 0 min 0 min 287 W/m 19,3 km/h (3 Bft) 96,88 %
25.04.2024 11:04 7,7 C 8,3 C 5,0 C 81 % 1007,3 hPa 0,0 l/m 0 min 0 min 279 W/m 19,3 km/h (3 Bft) 95,24 %
25.04.2024 11:02 7,7 C 8,3 C 5,0 C 81 % 1007,4 hPa 0,0 l/m 0 min 0 min 278 W/m 16,1 km/h (3 Bft) 93,62 %
25.04.2024 11:00 7,7 C 8,3 C 4,4 C 81 % 1007,4 hPa 0,0 l/m 0 min 0 min 267 W/m 22,5 km/h (4 Bft) 95,74 %
25.04.2024 10:58 7,7 C 8,3 C 4,4 C 81 % 1007,4 hPa 0,0 l/m 0 min 0 min 237 W/m 16,1 km/h (3 Bft) 95,74 %
25.04.2024 10:56 7,8 C 8,3 C 5,0 C 82 % 1007,4 hPa 0,0 l/m 0 min 0 min 272 W/m 19,3 km/h (3 Bft) 95,74 %
25.04.2024 10:54 7,7 C 8,9 C 5,0 C 82 % 1007,4 hPa 0,0 l/m 0 min 0 min 294 W/m 9,7 km/h (2 Bft) 95,65 %
25.04.2024 10:52 7,7 C 8,9 C 5,0 C 81 % 1007,4 hPa 0,0 l/m 2 min 0 min 324 W/m 16,1 km/h (3 Bft) 95,74 %
25.04.2024 10:50 7,7 C 8,9 C 5,0 C 82 % 1007,4 hPa 0,0 l/m 2 min 0 min 330 W/m 19,3 km/h (3 Bft) 93,62 %
25.04.2024 10:48 7,7 C 9,4 C 5,0 C 83 % 1007,5 hPa 0,0 l/m 2 min 0 min 319 W/m 12,9 km/h (3 Bft) 93,62 %
25.04.2024 10:46 7,6 C 9,4 C 5,0 C 83 % 1007,6 hPa 0,0 l/m 2 min 0 min 430 W/m 12,9 km/h (3 Bft) 97,87 %
25.04.2024 10:44 7,6 C 8,9 C 5,0 C 83 % 1007,5 hPa 0,0 l/m 2 min 0 min 419 W/m 16,1 km/h (3 Bft) 97,87 %
25.04.2024 10:42 7,6 C 8,9 C 5,0 C 83 % 1007,5 hPa 0,0 l/m 0 min 0 min 303 W/m 16,1 km/h (3 Bft) 95,65 %
25.04.2024 10:40 7,6 C 8,3 C 4,4 C 83 % 1007,6 hPa 0,0 l/m 0 min 0 min 283 W/m 12,9 km/h (3 Bft) 97,87 %
25.04.2024 10:38 7,6 C 8,3 C 5,0 C 84 % 1007,5 hPa 0,0 l/m 2 min 0 min 369 W/m 12,9 km/h (3 Bft) 95,74 %
25.04.2024 10:36 7,6 C 8,9 C 5,0 C 84 % 1007,5 hPa 0,0 l/m 2 min 0 min 303 W/m 19,3 km/h (3 Bft) 97,87 %
25.04.2024 10:34 7,6 C 8,9 C 5,0 C 84 % 1007,5 hPa 0,0 l/m 0 min 0 min 268 W/m 12,9 km/h (3 Bft) 97,87 %
25.04.2024 10:32 7,6 C 9,4 C 5,0 C 84 % 1007,5 hPa 0,0 l/m 2 min 0 min 318 W/m 16,1 km/h (3 Bft) 93,62 %
25.04.2024 10:30 7,6 C 10,0 C 5,6 C 85 % 1007,5 hPa 0,0 l/m 2 min 0 min 396 W/m 38,6 km/h (5 Bft) 97,83 %
25.04.2024 10:28 7,5 C 10,0 C 5,6 C 85 % 1007,6 hPa 0,0 l/m 2 min 0 min 381 W/m 16,1 km/h (3 Bft) 97,87 %
25.04.2024 10:26 7,4 C 11,1 C 5,6 C 86 % 1007,5 hPa 0,0 l/m 2 min 0 min 504 W/m 12,9 km/h (3 Bft) 93,62 %
25.04.2024 10:24 7,3 C 11,1 C 5,6 C 86 % 1007,5 hPa 0,0 l/m 2 min 0 min 576 W/m 12,9 km/h (3 Bft) 95,74 %
25.04.2024 10:22 7,2 C 10,6 C 5,0 C 86 % 1007,6 hPa 0,0 l/m 2 min 0 min 539 W/m 12,9 km/h (3 Bft) 93,62 %
25.04.2024 10:20 7,1 C 10,0 C 5,0 C 86 % 1007,5 hPa 0,0 l/m 2 min 0 min 426 W/m 16,1 km/h (3 Bft) 93,62 %
25.04.2024 10:18 7,0 C 8,9 C 4,4 C 86 % 1007,5 hPa 0,0 l/m 2 min 0 min 398 W/m 16,1 km/h (3 Bft) 93,48 %
25.04.2024 10:16 6,9 C 8,9 C 4,4 C 87 % 1007,6 hPa 0,0 l/m 2 min 0 min 344 W/m 12,9 km/h (3 Bft) 97,87 %
25.04.2024 10:14 6,9 C 8,9 C 4,4 C 87 % 1007,5 hPa 0,0 l/m 2 min 0 min 318 W/m 9,7 km/h (2 Bft) 97,87 %
25.04.2024 10:12 6,8 C 8,9 C 4,4 C 87 % 1007,6 hPa 0,0 l/m 2 min 0 min 352 W/m 9,7 km/h (2 Bft) 95,74 %
25.04.2024 10:10 6,7 C 8,9 C 4,4 C 87 % 1007,5 hPa 0,0 l/m 2 min 0 min 344 W/m 6,4 km/h (2 Bft) 95,74 %
25.04.2024 10:08 6,7 C 8,9 C 4,4 C 88 % 1007,5 hPa 0,0 l/m 2 min 0 min 323 W/m 12,9 km/h (3 Bft) 94,29 %
25.04.2024 10:06 6,6 C 8,9 C 4,4 C 88 % 1007,5 hPa 0,0 l/m 2 min 0 min 326 W/m 16,1 km/h (3 Bft) 98,28 %
25.04.2024 10:04 6,5 C 8,3 C 3,9 C 88 % 1007,5 hPa 0,0 l/m 2 min 0 min 313 W/m 12,9 km/h (3 Bft) 95,74 %
25.04.2024 10:02 6,4 C 8,3 C 3,9 C 88 % 1007,5 hPa 0,0 l/m 2 min 0 min 300 W/m 12,9 km/h (3 Bft) 97,87 %
25.04.2024 10:00 6,3 C 8,3 C 4,4 C 89 % 1007,5 hPa 0,0 l/m 2 min 0 min 267 W/m 6,4 km/h (2 Bft) 93,62 %
25.04.2024 09:58 6,3 C 8,3 C 3,9 C 89 % 1007,5 hPa 0,0 l/m 2 min 0 min 310 W/m 12,9 km/h (3 Bft) 95,74 %
25.04.2024 09:56 6,1 C 8,3 C 3,9 C 89 % 1007,5 hPa 0,0 l/m 2 min 0 min 287 W/m 6,4 km/h (2 Bft) 93,62 %
25.04.2024 09:54 6,1 C 7,8 C 3,9 C 89 % 1007,6 hPa 0,0 l/m 2 min 0 min 277 W/m 6,4 km/h (2 Bft) 95,65 %
25.04.2024 09:52 5,9 C 7,8 C 3,9 C 89 % 1007,5 hPa 0,0 l/m 2 min 0 min 271 W/m 6,4 km/h (2 Bft) 97,87 %
25.04.2024 09:50 5,8 C 7,8 C 3,3 C 90 % 1007,5 hPa 0,0 l/m 0 min 0 min 246 W/m 12,9 km/h (3 Bft) 95,74 %
25.04.2024 09:48 5,8 C 7,2 C 3,3 C 90 % 1007,5 hPa 0,0 l/m 0 min 0 min 225 W/m 6,4 km/h (2 Bft) 97,87 %
25.04.2024 09:46 5,7 C 7,2 C 3,3 C 90 % 1007,6 hPa 0,0 l/m 2 min 0 min 266 W/m 12,9 km/h (3 Bft) 100,00 %
25.04.2024 09:44 5,7 C 6,7 C 2,8 C 90 % 1007,5 hPa 0,0 l/m 2 min 0 min 254 W/m 12,9 km/h (3 Bft) 97,87 %
25.04.2024 09:42 5,7 C 6,1 C 2,8 C 90 % 1007,5 hPa 0,0 l/m 0 min 0 min 192 W/m 12,9 km/h (3 Bft) 100,00 %
25.04.2024 09:40 5,7 C 6,1 C 2,8 C 90 % 1007,5 hPa 0,0 l/m 0 min 0 min 185 W/m 6,4 km/h (2 Bft) 100,00 %
25.04.2024 09:38 5,6 C 6,1 C 2,2 C 91 % 1007,5 hPa 0,0 l/m 0 min 0 min 179 W/m 16,1 km/h (3 Bft) 100,00 %
25.04.2024 09:36 5,6 C 5,6 C 2,2 C 91 % 1007,5 hPa 0,0 l/m 0 min 0 min 171 W/m 16,1 km/h (3 Bft) 100,00 %
25.04.2024 09:34 5,6 C 6,1 C 2,2 C 91 % 1007,6 hPa 0,0 l/m 0 min 0 min 161 W/m 6,4 km/h (2 Bft) 100,00 %
25.04.2024 09:32 5,6 C 5,6 C 2,2 C 91 % 1007,6 hPa 0,0 l/m 0 min 0 min 155 W/m 6,4 km/h (2 Bft) 100,00 %
25.04.2024 09:30 5,6 C 5,6 C 2,2 C 91 % 1007,6 hPa 0,0 l/m 0 min 0 min 150 W/m 16,1 km/h (3 Bft) 100,00 %
25.04.2024 09:28 5,6 C 5,6 C 2,2 C 91 % 1007,6 hPa 0,0 l/m 0 min 0 min 144 W/m 16,1 km/h (3 Bft) 100,00 %
25.04.2024 09:26 5,6 C 5,6 C 2,2 C 91 % 1007,7 hPa 0,0 l/m 0 min 0 min 135 W/m 9,7 km/h (2 Bft) 100,00 %
25.04.2024 09:24 5,6 C 5,6 C 2,2 C 91 % 1007,7 hPa 0,0 l/m 0 min 0 min 129 W/m 9,7 km/h (2 Bft) 97,87 %
25.04.2024 09:22 5,6 C 5,6 C 2,2 C 91 % 1007,6 hPa 0,0 l/m 0 min 0 min 119 W/m 9,7 km/h (2 Bft) 97,87 %
25.04.2024 09:20 5,6 C 5,6 C 2,2 C 91 % 1007,6 hPa 0,0 l/m 0 min 0 min 110 W/m 12,9 km/h (3 Bft) 97,83 %
25.04.2024 09:18 5,6 C 5,6 C 2,2 C 91 % 1007,6 hPa 0,0 l/m 0 min 0 min 107 W/m 12,9 km/h (3 Bft) 97,87 %
25.04.2024 09:16 5,6 C 5,6 C 2,2 C 91 % 1007,6 hPa 0,0 l/m 0 min 0 min 105 W/m 6,4 km/h (2 Bft) 100,00 %
25.04.2024 09:14 5,6 C 5,6 C 2,2 C 91 % 1007,6 hPa 0,0 l/m 0 min 0 min 106 W/m 9,7 km/h (2 Bft) 100,00 %
25.04.2024 09:12 5,6 C 5,6 C 2,2 C 91 % 1007,6 hPa 0,0 l/m 0 min 0 min 103 W/m 16,1 km/h (3 Bft) 93,62 %
25.04.2024 09:10 5,7 C 5,6 C 2,2 C 91 % 1007,6 hPa 0,0 l/m 0 min 0 min 108 W/m 22,5 km/h (4 Bft) 95,74 %
25.04.2024 09:08 5,7 C 6,1 C 2,2 C 92 % 1007,7 hPa 0,0 l/m 0 min 0 min 115 W/m 12,9 km/h (3 Bft) 100,00 %
25.04.2024 09:06 5,7 C 6,1 C 2,8 C 92 % 1007,6 hPa 0,0 l/m 0 min 0 min 133 W/m 16,1 km/h (3 Bft) 96,55 %
25.04.2024 09:04 5,7 C 6,7 C 2,8 C 92 % 1007,7 hPa 0,0 l/m 0 min 0 min 155 W/m 9,7 km/h (2 Bft) 97,92 %
25.04.2024 09:02 5,7 C 6,7 C 2,8 C 92 % 1007,6 hPa 0,0 l/m 0 min 0 min 195 W/m 12,9 km/h (3 Bft) 95,74 %
25.04.2024 09:00 5,7 C 7,2 C 2,8 C 92 % 1007,7 hPa 0,0 l/m 2 min 0 min 242 W/m 16,1 km/h (3 Bft) 95,74 %
25.04.2024 08:58 5,6 C 7,2 C 2,8 C 93 % 1007,6 hPa 0,0 l/m 2 min 0 min 277 W/m 16,1 km/h (3 Bft) 97,87 %
25.04.2024 08:56 5,6 C 7,2 C 2,8 C 93 % 1007,6 hPa 0,0 l/m 2 min 0 min 252 W/m 9,7 km/h (2 Bft) 97,83 %
25.04.2024 08:54 5,5 C 6,7 C 2,8 C 93 % 1007,7 hPa 0,0 l/m 2 min 0 min 243 W/m 9,7 km/h (2 Bft) 93,62 %
25.04.2024 08:52 5,4 C 6,7 C 2,2 C 93 % 1007,7 hPa 0,0 l/m 2 min 0 min 233 W/m 6,4 km/h (2 Bft) 97,87 %
25.04.2024 08:50 5,4 C 6,1 C 2,2 C 93 % 1007,7 hPa 0,0 l/m 2 min 0 min 187 W/m 12,9 km/h (3 Bft) 97,87 %
25.04.2024 08:48 5,4 C 5,6 C 2,2 C 93 % 1007,7 hPa 0,0 l/m 0 min 0 min 147 W/m 12,9 km/h (3 Bft) 93,62 %
25.04.2024 08:46 5,4 C 5,6 C 2,2 C 93 % 1007,8 hPa 0,0 l/m 0 min 0 min 132 W/m 9,7 km/h (2 Bft) 95,74 %
25.04.2024 08:44 5,3 C 5,6 C 2,2 C 93 % 1007,7 hPa 0,0 l/m 0 min 0 min 132 W/m 16,1 km/h (3 Bft) 95,65 %
25.04.2024 08:42 5,3 C 5,6 C 2,2 C 93 % 1007,8 hPa 0,0 l/m 0 min 0 min 130 W/m 16,1 km/h (3 Bft) 95,74 %
25.04.2024 08:40 5,3 C 6,1 C 2,2 C 94 % 1007,7 hPa 0,0 l/m 0 min 0 min 142 W/m 12,9 km/h (3 Bft) 97,87 %
25.04.2024 08:38 5,2 C 5,6 C 2,2 C 94 % 1007,8 hPa 0,0 l/m 0 min 0 min 132 W/m 6,4 km/h (2 Bft) 97,87 %
25.04.2024 08:36 5,2 C 5,6 C 2,2 C 94 % 1007,8 hPa 0,0 l/m 0 min 0 min 150 W/m 3,2 km/h (1 Bft) 95,74 %
25.04.2024 08:34 5,2 C 5,6 C 2,2 C 93 % 1007,8 hPa 0,0 l/m 0 min 0 min 141 W/m 12,9 km/h (3 Bft) 100,00 %
25.04.2024 08:32 5,1 C 5,6 C 2,2 C 94 % 1007,7 hPa 0,0 l/m 0 min 0 min 141 W/m 22,5 km/h (4 Bft) 100,00 %
25.04.2024 08:30 5,1 C 5,6 C 1,7 C 94 % 1007,7 hPa 0,0 l/m 0 min 0 min 143 W/m 12,9 km/h (3 Bft) 100,00 %
25.04.2024 08:28 5,1 C 5,6 C 1,7 C 94 % 1007,8 hPa 0,0 l/m 0 min 0 min 131 W/m 16,1 km/h (3 Bft) 97,87 %
25.04.2024 08:26 5,1 C 5,6 C 1,7 C 94 % 1007,8 hPa 0,0 l/m 0 min 0 min 121 W/m 12,9 km/h (3 Bft) 95,74 %
25.04.2024 08:24 5,0 C 5,6 C 1,7 C 94 % 1007,8 hPa 0,0 l/m 0 min 0 min 115 W/m 9,7 km/h (2 Bft) 100,00 %
25.04.2024 08:22 5,0 C 5,6 C 1,7 C 94 % 1007,9 hPa 0,0 l/m 0 min 0 min 114 W/m 16,1 km/h (3 Bft) 100,00 %
25.04.2024 08:20 4,9 C 5,6 C 1,7 C 94 % 1007,8 hPa 0,0 l/m 0 min 0 min 116 W/m 12,9 km/h (3 Bft) 97,87 %
25.04.2024 08:18 4,9 C 5,0 C 1,7 C 94 % 1007,8 hPa 0,0 l/m 0 min 0 min 121 W/m 9,7 km/h (2 Bft) 100,00 %
25.04.2024 08:16 4,8 C 5,0 C 1,7 C 94 % 1007,8 hPa 0,0 l/m 0 min 0 min 119 W/m 16,1 km/h (3 Bft) 100,00 %
25.04.2024 08:14 4,8 C 5,0 C 1,7 C 94 % 1007,8 hPa 0,0 l/m 0 min 0 min 114 W/m 6,4 km/h (2 Bft) 97,87 %
25.04.2024 08:12 4,7 C 5,0 C 1,7 C 94 % 1007,8 hPa 0,0 l/m 0 min 0 min 108 W/m 3,2 km/h (1 Bft) 100,00 %
25.04.2024 08:10 4,7 C 5,0 C 1,7 C 95 % 1007,8 hPa 0,0 l/m 0 min 0 min 101 W/m 19,3 km/h (3 Bft) 95,65 %
25.04.2024 08:08 4,7 C 5,0 C 1,7 C 95 % 1007,8 hPa 0,0 l/m 0 min 0 min 101 W/m 16,1 km/h (3 Bft) 100,00 %
25.04.2024 08:06 4,7 C 5,0 C 1,7 C 95 % 1007,8 hPa 0,0 l/m 0 min 0 min 106 W/m 9,7 km/h (2 Bft) 98,31 %
25.04.2024 08:04 4,6 C 5,0 C 1,7 C 94 % 1007,7 hPa 0,0 l/m 0 min 0 min 119 W/m 16,1 km/h (3 Bft) 100,00 %
25.04.2024 08:02 4,5 C 5,0 C 1,7 C 94 % 1007,8 hPa 0,0 l/m 2 min 0 min 130 W/m 12,9 km/h (3 Bft) 100,00 %
25.04.2024 08:00 4,4 C 5,0 C 1,1 C 95 % 1007,8 hPa 0,0 l/m 0 min 0 min 122 W/m 9,7 km/h (2 Bft) 97,87 %
25.04.2024 07:58 4,4 C 4,4 C 1,1 C 95 % 1007,8 hPa 0,0 l/m 0 min 0 min 106 W/m 6,4 km/h (2 Bft) 100,00 %
25.04.2024 07:56 4,3 C 4,4 C 1,1 C 95 % 1007,8 hPa 0,0 l/m 0 min 0 min 97 W/m 9,7 km/h (2 Bft) 97,87 %
25.04.2024 07:54 4,3 C 4,4 C 1,1 C 94 % 1007,8 hPa 0,0 l/m 0 min 0 min 92 W/m 12,9 km/h (3 Bft) 94,29 %
25.04.2024 07:52 4,2 C 4,4 C 1,1 C 94 % 1007,8 hPa 0,0 l/m 0 min 0 min 89 W/m 16,1 km/h (3 Bft) 95,74 %
25.04.2024 07:50 4,2 C 4,4 C 1,1 C 94 % 1007,8 hPa 0,0 l/m 0 min 0 min 83 W/m 16,1 km/h (3 Bft) 96,61 %
25.04.2024 07:48 4,2 C 3,9 C 0,6 C 94 % 1007,8 hPa 0,0 l/m 0 min 0 min 78 W/m 9,7 km/h (2 Bft) 95,65 %
25.04.2024 07:46 4,1 C 3,9 C 0,6 C 94 % 1007,8 hPa 0,0 l/m 0 min 0 min 72 W/m 6,4 km/h (2 Bft) 94,44 %
25.04.2024 07:44 4,1 C 3,9 C 0,6 C 94 % 1007,7 hPa 0,0 l/m 0 min 0 min 66 W/m 6,4 km/h (2 Bft) 95,65 %
25.04.2024 07:42 4,1 C 3,9 C 0,6 C 94 % 1007,7 hPa 0,0 l/m 0 min 0 min 60 W/m 3,2 km/h (1 Bft) 94,92 %
25.04.2024 07:40 4,0 C 3,9 C 0,6 C 94 % 1007,8 hPa 0,0 l/m 0 min 0 min 56 W/m 6,4 km/h (2 Bft) 97,14 %
25.04.2024 07:38 3,9 C 3,9 C 0,6 C 94 % 1007,8 hPa 0,0 l/m 0 min 0 min 55 W/m 12,9 km/h (3 Bft) 95,74 %
25.04.2024 07:36 3,9 C 3,9 C 0,6 C 94 % 1007,8 hPa 0,0 l/m 0 min 0 min 54 W/m 12,9 km/h (3 Bft) 95,74 %
25.04.2024 07:34 3,9 C 3,9 C 0,6 C 94 % 1007,8 hPa 0,0 l/m 0 min 0 min 53 W/m 6,4 km/h (2 Bft) 93,62 %
25.04.2024 07:32 3,8 C 3,9 C 0,6 C 94 % 1007,7 hPa 0,0 l/m 0 min 0 min 52 W/m 6,4 km/h (2 Bft) 95,65 %
25.04.2024 07:30 3,8 C 3,9 C 0,6 C 94 % 1007,7 hPa 0,0 l/m 0 min 0 min 50 W/m 9,7 km/h (2 Bft) 93,62 %
25.04.2024 07:28 3,8 C 3,3 C 0,6 C 94 % 1007,8 hPa 0,0 l/m 0 min 0 min 49 W/m 6,4 km/h (2 Bft) 96,61 %
25.04.2024 07:26 3,7 C 3,3 C 0,6 C 94 % 1007,7 hPa 0,0 l/m 0 min 0 min 47 W/m 6,4 km/h (2 Bft) 91,43 %
25.04.2024 07:24 3,7 C 3,3 C 0,6 C 94 % 1007,7 hPa 0,0 l/m 0 min 0 min 46 W/m 12,9 km/h (3 Bft) 95,74 %
25.04.2024 07:22 3,7 C 3,3 C 0,0 C 94 % 1007,8 hPa 0,0 l/m 0 min 0 min 40 W/m 3,2 km/h (1 Bft) 95,74 %
25.04.2024 07:20 3,7 C 3,3 C 0,0 C 94 % 1007,7 hPa 0,0 l/m 0 min 0 min 39 W/m 6,4 km/h (2 Bft) 95,65 %
25.04.2024 07:18 3,7 C 3,3 C 0,0 C 94 % 1007,7 hPa 0,0 l/m 0 min 0 min 36 W/m 6,4 km/h (2 Bft) 93,22 %
25.04.2024 07:16 3,7 C 3,3 C 0,0 C 94 % 1007,7 hPa 0,0 l/m 0 min 0 min 34 W/m 19,3 km/h (3 Bft) 91,43 %
25.04.2024 07:14 3,7 C 3,3 C 0,0 C 94 % 1007,7 hPa 0,0 l/m 0 min 0 min 32 W/m 9,7 km/h (2 Bft) 93,62 %
25.04.2024 07:12 3,7 C 3,3 C 0,0 C 94 % 1007,7 hPa 0,0 l/m 0 min 0 min 30 W/m 6,4 km/h (2 Bft) 95,74 %
25.04.2024 07:10 3,7 C 3,3 C 0,0 C 94 % 1007,7 hPa 0,0 l/m 0 min 0 min 29 W/m 9,7 km/h (2 Bft) 95,65 %
25.04.2024 07:08 3,7 C 3,3 C 0,0 C 94 % 1007,8 hPa 0,0 l/m 0 min 0 min 27 W/m 9,7 km/h (2 Bft) 95,74 %
25.04.2024 07:06 3,7 C 3,3 C 0,0 C 94 % 1007,8 hPa 0,0 l/m 0 min 0 min 26 W/m 9,7 km/h (2 Bft) 95,74 %
25.04.2024 07:04 3,7 C 3,3 C 0,0 C 94 % 1007,7 hPa 0,0 l/m 0 min 0 min 23 W/m 6,4 km/h (2 Bft) 93,18 %
25.04.2024 07:02 3,7 C 3,3 C 0,0 C 94 % 1007,8 hPa 0,0 l/m 0 min 0 min 22 W/m 6,4 km/h (2 Bft) 95,74 %
25.04.2024 07:00 3,7 C 3,3 C 0,0 C 94 % 1007,8 hPa 0,0 l/m 0 min 0 min 21 W/m 6,4 km/h (2 Bft) 91,49 %
25.04.2024 06:58 3,7 C 3,3 C 0,0 C 94 % 1007,7 hPa 0,0 l/m 0 min 0 min 21 W/m 6,4 km/h (2 Bft) 93,48 %
25.04.2024 06:56 3,7 C 3,3 C 0,0 C 94 % 1007,8 hPa 0,0 l/m 0 min 0 min 19 W/m 3,2 km/h (1 Bft) 95,74 %
25.04.2024 06:54 3,6 C 3,3 C 0,0 C 94 % 1007,8 hPa 0,0 l/m 0 min 0 min 17 W/m 12,9 km/h (3 Bft) 97,87 %
25.04.2024 06:52 3,7 C 3,3 C 0,0 C 94 % 1007,8 hPa 0,0 l/m 0 min 0 min 14 W/m 6,4 km/h (2 Bft) 97,87 %
25.04.2024 06:50 3,7 C 3,3 C 0,0 C 94 % 1007,9 hPa 0,0 l/m 0 min 0 min 12 W/m 6,4 km/h (2 Bft) 97,87 %
25.04.2024 06:48 3,7 C 3,3 C 0,0 C 94 % 1007,8 hPa 0,0 l/m 0 min 0 min 11 W/m 6,4 km/h (2 Bft) 100,00 %
25.04.2024 06:46 3,7 C 3,3 C 0,0 C 94 % 1007,9 hPa 0,0 l/m 0 min 0 min 11 W/m 0,0 km/h (0 Bft) 97,83 %
25.04.2024 06:44 3,7 C 3,3 C 0,0 C 94 % 1007,9 hPa 0,0 l/m 0 min 0 min 9 W/m 0,0 km/h (0 Bft) 97,87 %
25.04.2024 06:42 3,7 C 3,3 C 0,0 C 94 % 1007,9 hPa 0,0 l/m 0 min 0 min 9 W/m 0,0 km/h (0 Bft) 97,87 %
25.04.2024 06:40 3,6 C 3,3 C 0,0 C 94 % 1007,9 hPa 0,0 l/m 0 min 0 min 8 W/m 3,2 km/h (1 Bft) 100,00 %
25.04.2024 06:38 3,7 C 3,3 C 0,0 C 94 % 1007,9 hPa 0,0 l/m 0 min 0 min 7 W/m 0,0 km/h (0 Bft) 100,00 %
25.04.2024 06:36 3,7 C 3,3 C 0,0 C 94 % 1007,8 hPa 0,0 l/m 0 min 0 min 7 W/m 0,0 km/h (0 Bft) 100,00 %
25.04.2024 06:34 3,6 C 3,3 C 0,0 C 94 % 1007,9 hPa 0,0 l/m 0 min 0 min 6 W/m 0,0 km/h (0 Bft) 100,00 %
25.04.2024 06:32 3,7 C 3,3 C 0,0 C 94 % 1007,8 hPa 0,0 l/m 0 min 0 min 5 W/m 0,0 km/h (0 Bft) 47,37 %
25.04.2024 06:30 3,6 C 3,3 C 0,0 C 94 % 1007,8 hPa 0,0 l/m 0 min 0 min 5 W/m 0,0 km/h (0 Bft) 100,00 %
25.04.2024 06:28 3,6 C 3,3 C 0,0 C 94 % 1007,9 hPa 0,0 l/m 0 min 0 min 1 W/m 0,0 km/h (0 Bft) 100,00 %
25.04.2024 06:26 3,6 C 2,8 C 0,0 C 94 % 1007,8 hPa 0,0 l/m 0 min 0 min 0 W/m 0,0 km/h (0 Bft) 100,00 %
25.04.2024 06:24 3,6 C 2,8 C 0,0 C 93 % 1007,8 hPa 0,0 l/m 0 min 0 min 0 W/m 0,0 km/h (0 Bft) 100,00 %
25.04.2024 06:23 3,6 C 2,8 C 0,0 C 93 % 1007,8 hPa 0,0 l/m 0 min 0 min 0 W/m 0,0 km/h (0 Bft) 98,55 %
25.04.2024 06:18 3,6 C 2,8 C 0,0 C 93 % 1007,8 hPa 0,0 l/m 0 min 0 min 0 W/m 0,0 km/h (0 Bft) 97,87 %
25.04.2024 06:16 3,6 C 2,8 C 0,0 C 93 % 1007,9 hPa 0,0 l/m 0 min 0 min 0 W/m 0,0 km/h (0 Bft) 100,00 %
25.04.2024 06:15 3,6 C 2,8 C 0,0 C 93 % 1007,8 hPa 0,0 l/m 0 min 0 min 0 W/m 3,2 km/h (1 Bft) 100,00 %
25.04.2024 06:10 3,6 C 2,8 C 0,0 C 93 % 1007,8 hPa 0,0 l/m 0 min 0 min 0 W/m 3,2 km/h (1 Bft) 98,63 %
25.04.2024 06:08 3,6 C 2,8 C 0,0 C 93 % 1007,8 hPa 0,0 l/m 0 min 0 min 0 W/m 3,2 km/h (1 Bft) 100,00 %
25.04.2024 06:04 3,6 C 2,8 C 0,0 C 93 % 1007,9 hPa 0,0 l/m 0 min 0 min 0 W/m 3,2 km/h (1 Bft) 100,00 %
25.04.2024 06:02 3,6 C 2,8 C 0,0 C 93 % 1007,9 hPa 0,0 l/m 0 min 0 min 0 W/m 3,2 km/h (1 Bft) 100,00 %
25.04.2024 06:00 3,6 C 2,8 C 0,0 C 93 % 1007,9 hPa 0,0 l/m 0 min 0 min 0 W/m 3,2 km/h (1 Bft) 100,00 %
25.04.2024 05:58 3,6 C 2,8 C 0,0 C 93 % 1007,9 hPa 0,0 l/m 0 min 0 min 0 W/m 3,2 km/h (1 Bft) 100,00 %
25.04.2024 05:56 3,6 C 2,8 C 0,0 C 93 % 1007,8 hPa 0,0 l/m 0 min 0 min 0 W/m 3,2 km/h (1 Bft) 100,00 %
25.04.2024 05:54 3,6 C 2,8 C 0,0 C 93 % 1007,8 hPa 0,0 l/m 0 min 0 min 0 W/m 3,2 km/h (1 Bft) 100,00 %
25.04.2024 05:52 3,6 C 2,8 C 0,0 C 93 % 1007,8 hPa 0,0 l/m 0 min 0 min 0 W/m 3,2 km/h (1 Bft) 100,00 %
25.04.2024 05:50 3,7 C 2,8 C 0,0 C 93 % 1007,8 hPa 0,0 l/m 0 min 0 min 0 W/m 3,2 km/h (1 Bft) 100,00 %
25.04.2024 05:48 3,7 C 2,8 C 0,0 C 93 % 1007,8 hPa 0,0 l/m 0 min 0 min 0 W/m 3,2 km/h (1 Bft) 100,00 %
25.04.2024 05:46 3,7 C 2,8 C 0,0 C 93 % 1007,8 hPa 0,0 l/m 0 min 0 min 0 W/m 0,0 km/h (0 Bft) 100,00 %
25.04.2024 05:44 3,7 C 2,8 C 0,0 C 93 % 1007,8 hPa 0,0 l/m 0 min 0 min 0 W/m 0,0 km/h (0 Bft) 100,00 %
25.04.2024 05:42 3,7 C 2,8 C 0,0 C 93 % 1007,8 hPa 0,0 l/m 0 min 0 min 0 W/m 6,4 km/h (2 Bft) 100,00 %
25.04.2024 05:40 3,7 C 2,8 C 0,0 C 93 % 1007,8 hPa 0,0 l/m 0 min 0 min 0 W/m 6,4 km/h (2 Bft) 100,00 %
25.04.2024 05:38 3,8 C 2,8 C 0,0 C 93 % 1007,8 hPa 0,0 l/m 0 min 0 min 0 W/m 6,4 km/h (2 Bft) 100,00 %
25.04.2024 05:36 3,8 C 2,8 C 0,0 C 93 % 1007,8 hPa 0,0 l/m 0 min 0 min 0 W/m 3,2 km/h (1 Bft) 93,62 %
25.04.2024 05:34 3,8 C 2,8 C 0,0 C 93 % 1007,8 hPa 0,0 l/m 0 min 0 min 0 W/m 3,2 km/h (1 Bft) 95,74 %
25.04.2024 05:32 3,8 C 2,8 C 0,0 C 93 % 1007,8 hPa 0,0 l/m 0 min 0 min 0 W/m 6,4 km/h (2 Bft) 95,74 %
25.04.2024 05:30 3,9 C 3,3 C 0,0 C 93 % 1007,9 hPa 0,0 l/m 0 min 0 min 0 W/m 3,2 km/h (1 Bft) 93,62 %
25.04.2024 05:28 3,9 C 3,3 C 0,0 C 93 % 1007,9 hPa 0,0 l/m 0 min 0 min 0 W/m 3,2 km/h (1 Bft) 95,74 %
25.04.2024 05:26 3,9 C 2,8 C 0,0 C 93 % 1007,8 hPa 0,0 l/m 0 min 0 min 0 W/m 3,2 km/h (1 Bft) 95,65 %
25.04.2024 05:24 3,9 C 2,8 C 0,0 C 93 % 1007,8 hPa 0,0 l/m 0 min 0 min 0 W/m 3,2 km/h (1 Bft) 95,74 %
25.04.2024 05:22 4,0 C 3,3 C 0,0 C 93 % 1007,9 hPa 0,0 l/m 0 min 0 min 0 W/m 3,2 km/h (1 Bft) 95,74 %
25.04.2024 05:20 4,0 C 3,3 C 0,0 C 93 % 1007,9 hPa 0,0 l/m 0 min 0 min 0 W/m 3,2 km/h (1 Bft) 95,74 %
25.04.2024 05:18 4,1 C 3,3 C 0,6 C 93 % 1007,9 hPa 0,0 l/m 0 min 0 min 0 W/m 3,2 km/h (1 Bft) 91,49 %
25.04.2024 05:16 4,1 C 3,3 C 0,6 C 93 % 1008,0 hPa 0,0 l/m 0 min 0 min 0 W/m 6,4 km/h (2 Bft) 95,74 %
25.04.2024 05:14 4,1 C 3,3 C 0,6 C 93 % 1008,0 hPa 0,0 l/m 0 min 0 min 0 W/m 3,2 km/h (1 Bft) 95,65 %
25.04.2024 05:12 4,2 C 3,3 C 0,6 C 93 % 1008,0 hPa 0,0 l/m 0 min 0 min 0 W/m 6,4 km/h (2 Bft) 93,62 %
25.04.2024 05:10 4,2 C 3,3 C 0,6 C 93 % 1008,0 hPa 0,0 l/m 0 min 0 min 0 W/m 9,7 km/h (2 Bft) 95,74 %
25.04.2024 05:08 4,2 C 3,3 C 0,6 C 93 % 1008,0 hPa 0,0 l/m 0 min 0 min 0 W/m 3,2 km/h (1 Bft) 97,14 %
25.04.2024 05:06 4,2 C 3,3 C 0,6 C 93 % 1008,0 hPa 0,0 l/m 0 min 0 min 0 W/m 6,4 km/h (2 Bft) 98,31 %
25.04.2024 05:04 4,3 C 3,3 C 0,6 C 93 % 1008,0 hPa 0,0 l/m 0 min 0 min 0 W/m 3,2 km/h (1 Bft) 97,96 %
25.04.2024 05:02 4,3 C 3,3 C 0,6 C 93 % 1008,1 hPa 0,0 l/m 0 min 0 min 0 W/m 3,2 km/h (1 Bft) 95,65 %
25.04.2024 05:00 4,3 C 3,3 C 0,6 C 93 % 1008,0 hPa 0,0 l/m 0 min 0 min 0 W/m 3,2 km/h (1 Bft) 93,62 %
25.04.2024 04:58 4,3 C 3,3 C 0,6 C 93 % 1008,0 hPa 0,0 l/m 0 min 0 min 0 W/m 3,2 km/h (1 Bft) 97,87 %
25.04.2024 04:56 4,3 C 3,3 C 0,6 C 93 % 1008,0 hPa 0,0 l/m 0 min 0 min 0 W/m 6,4 km/h (2 Bft) 97,87 %
25.04.2024 04:54 4,4 C 3,3 C 0,6 C 93 % 1008,0 hPa 0,0 l/m 0 min 0 min 0 W/m 9,7 km/h (2 Bft) 100,00 %
25.04.2024 04:52 4,4 C 3,9 C 0,6 C 93 % 1008,0 hPa 0,0 l/m 0 min 0 min 0 W/m 3,2 km/h (1 Bft) 100,00 %
25.04.2024 04:50 4,4 C 3,9 C 0,6 C 93 % 1007,9 hPa 0,0 l/m 0 min 0 min 0 W/m 6,4 km/h (2 Bft) 97,83 %
25.04.2024 04:48 4,5 C 3,9 C 0,6 C 93 % 1008,0 hPa 0,0 l/m 0 min 0 min 0 W/m 19,3 km/h (3 Bft) 97,87 %
25.04.2024 04:46 4,5 C 3,9 C 0,6 C 93 % 1008,0 hPa 0,0 l/m 0 min 0 min 0 W/m 6,4 km/h (2 Bft) 100,00 %
25.04.2024 04:44 4,6 C 3,9 C 0,6 C 93 % 1007,9 hPa 0,0 l/m 0 min 0 min 0 W/m 6,4 km/h (2 Bft) 100,00 %
25.04.2024 04:42 4,6 C 3,9 C 0,6 C 93 % 1008,0 hPa 0,0 l/m 0 min 0 min 0 W/m 6,4 km/h (2 Bft) 100,00 %
25.04.2024 04:40 4,6 C 3,9 C 0,6 C 93 % 1008,0 hPa 0,0 l/m 0 min 0 min 0 W/m 6,4 km/h (2 Bft) 100,00 %
25.04.2024 04:38 4,6 C 3,9 C 1,1 C 93 % 1008,0 hPa 0,0 l/m 0 min 0 min 0 W/m 6,4 km/h (2 Bft) 100,00 %
25.04.2024 04:36 4,7 C 3,9 C 1,1 C 93 % 1007,9 hPa 0,0 l/m 0 min 0 min 0 W/m 6,4 km/h (2 Bft) 100,00 %
25.04.2024 04:34 4,7 C 3,9 C 1,1 C 93 % 1008,0 hPa 0,0 l/m 0 min 0 min 0 W/m 6,4 km/h (2 Bft) 95,74 %
25.04.2024 04:32 4,7 C 3,9 C 1,1 C 93 % 1008,0 hPa 0,0 l/m 0 min 0 min 0 W/m 6,4 km/h (2 Bft) 97,87 %
25.04.2024 04:30 4,7 C 3,9 C 1,1 C 93 % 1008,1 hPa 0,0 l/m 0 min 0 min 0 W/m 6,4 km/h (2 Bft) 100,00 %
25.04.2024 04:28 4,7 C 3,9 C 1,1 C 93 % 1008,1 hPa 0,0 l/m 0 min 0 min 0 W/m 6,4 km/h (2 Bft) 97,83 %
25.04.2024 04:26 4,7 C 3,9 C 1,1 C 93 % 1008,0 hPa 0,0 l/m 0 min 0 min 0 W/m 3,2 km/h (1 Bft) 97,87 %
25.04.2024 04:24 4,8 C 3,9 C 1,1 C 93 % 1008,1 hPa 0,0 l/m 0 min 0 min 0 W/m 6,4 km/h (2 Bft) 100,00 %
25.04.2024 04:22 4,8 C 3,9 C 1,1 C 93 % 1008,1 hPa 0,0 l/m 0 min 0 min 0 W/m 6,4 km/h (2 Bft) 100,00 %
25.04.2024 04:20 4,8 C 3,9 C 1,1 C 93 % 1008,0 hPa 0,0 l/m 0 min 0 min 0 W/m 6,4 km/h (2 Bft) 97,87 %
25.04.2024 04:18 4,9 C 3,9 C 1,1 C 93 % 1008,1 hPa 0,0 l/m 0 min 0 min 0 W/m 3,2 km/h (1 Bft) 97,87 %
25.04.2024 04:16 4,9 C 3,9 C 1,1 C 93 % 1008,1 hPa 0,0 l/m 0 min 0 min 0 W/m 3,2 km/h (1 Bft) 97,83 %
25.04.2024 04:14 4,9 C 3,9 C 1,1 C 93 % 1008,1 hPa 0,0 l/m 0 min 0 min 0 W/m 3,2 km/h (1 Bft) 97,87 %
25.04.2024 04:12 4,9 C 4,4 C 1,1 C 93 % 1008,1 hPa 0,0 l/m 0 min 0 min 0 W/m 6,4 km/h (2 Bft) 95,74 %
25.04.2024 04:10 5,0 C 4,4 C 1,1 C 93 % 1008,1 hPa 0,0 l/m 0 min 0 min 0 W/m 3,2 km/h (1 Bft) 97,87 %
25.04.2024 04:08 5,0 C 4,4 C 1,1 C 93 % 1008,1 hPa 0,0 l/m 0 min 0 min 0 W/m 3,2 km/h (1 Bft) 97,14 %
25.04.2024 04:06 5,1 C 4,4 C 1,1 C 93 % 1008,1 hPa 0,0 l/m 0 min 0 min 0 W/m 6,4 km/h (2 Bft) 96,61 %
25.04.2024 04:04 5,1 C 4,4 C 1,1 C 93 % 1008,1 hPa 0,0 l/m 0 min 0 min 0 W/m 3,2 km/h (1 Bft) 97,92 %
25.04.2024 04:02 5,1 C 4,4 C 1,1 C 93 % 1008,1 hPa 0,0 l/m 0 min 0 min 0 W/m 3,2 km/h (1 Bft) 97,87 %
25.04.2024 04:00 5,1 C 4,4 C 1,1 C 93 % 1008,1 hPa 0,0 l/m 0 min 0 min 0 W/m 3,2 km/h (1 Bft) 97,87 %
25.04.2024 03:58 5,1 C 4,4 C 1,1 C 93 % 1008,0 hPa 0,0 l/m 0 min 0 min 0 W/m 3,2 km/h (1 Bft) 97,87 %
25.04.2024 03:56 5,1 C 4,4 C 1,1 C 93 % 1008,1 hPa 0,0 l/m 0 min 0 min 0 W/m 6,4 km/h (2 Bft) 95,74 %
25.04.2024 03:54 5,1 C 4,4 C 1,1 C 93 % 1008,0 hPa 0,0 l/m 0 min 0 min 0 W/m 3,2 km/h (1 Bft) 95,65 %
25.04.2024 03:52 5,2 C 4,4 C 1,1 C 93 % 1008,0 hPa 0,0 l/m 0 min 0 min 0 W/m 3,2 km/h (1 Bft) 93,62 %
25.04.2024 03:50 5,2 C 4,4 C 1,1 C 93 % 1008,1 hPa 0,0 l/m 0 min 0 min 0 W/m 3,2 km/h (1 Bft) 97,87 %
25.04.2024 03:48 5,2 C 4,4 C 1,1 C 93 % 1008,1 hPa 0,0 l/m 0 min 0 min 0 W/m 3,2 km/h (1 Bft) 95,74 %
25.04.2024 03:46 5,2 C 4,4 C 1,1 C 93 % 1008,1 hPa 0,0 l/m 0 min 0 min 0 W/m 6,4 km/h (2 Bft) 93,62 %
25.04.2024 03:44 5,2 C 4,4 C 1,1 C 93 % 1008,2 hPa 0,0 l/m 0 min 2 min 0 W/m 12,9 km/h (3 Bft) 97,87 %
25.04.2024 03:42 5,2 C 4,4 C 1,1 C 93 % 1008,2 hPa 0,0 l/m 0 min 0 min 0 W/m 6,4 km/h (2 Bft) 95,74 %
25.04.2024 03:40 5,2 C 4,4 C 1,1 C 93 % 1008,1 hPa 0,0 l/m 0 min 0 min 0 W/m 9,7 km/h (2 Bft) 95,65 %
25.04.2024 03:38 5,2 C 4,4 C 1,1 C 93 % 1008,2 hPa 0,0 l/m 0 min 0 min 0 W/m 6,4 km/h (2 Bft) 95,74 %
25.04.2024 03:36 5,2 C 4,4 C 1,1 C 93 % 1008,2 hPa 0,0 l/m 0 min 0 min 0 W/m 6,4 km/h (2 Bft) 95,74 %
25.04.2024 03:34 5,3 C 4,4 C 1,1 C 93 % 1008,2 hPa 0,0 l/m 0 min 0 min 0 W/m 12,9 km/h (3 Bft) 93,62 %
25.04.2024 03:32 5,3 C 4,4 C 1,1 C 93 % 1008,3 hPa 0,0 l/m 0 min 0 min 0 W/m 3,2 km/h (1 Bft) 95,74 %
25.04.2024 03:30 5,3 C 4,4 C 1,1 C 93 % 1008,2 hPa 0,0 l/m 0 min 0 min 0 W/m 6,4 km/h (2 Bft) 95,65 %
25.04.2024 03:28 5,3 C 4,4 C 1,1 C 93 % 1008,2 hPa 0,0 l/m 0 min 0 min 0 W/m 3,2 km/h (1 Bft) 95,74 %
25.04.2024 03:26 5,3 C 4,4 C 1,1 C 93 % 1008,2 hPa 0,0 l/m 0 min 0 min 0 W/m 6,4 km/h (2 Bft) 95,74 %
25.04.2024 03:24 5,3 C 4,4 C 1,1 C 92 % 1008,2 hPa 0,0 l/m 0 min 0 min 0 W/m 6,4 km/h (2 Bft) 95,74 %
25.04.2024 03:22 5,3 C 4,4 C 1,1 C 92 % 1008,2 hPa 0,0 l/m 0 min 0 min 0 W/m 6,4 km/h (2 Bft) 100,00 %
25.04.2024 03:20 5,3 C 4,4 C 1,1 C 92 % 1008,2 hPa 0,0 l/m 0 min 0 min 0 W/m 6,4 km/h (2 Bft) 100,00 %
25.04.2024 03:18 5,3 C 4,4 C 1,1 C 92 % 1008,3 hPa 0,0 l/m 0 min 0 min 0 W/m 9,7 km/h (2 Bft) 97,83 %
25.04.2024 03:16 5,3 C 4,4 C 1,7 C 92 % 1008,3 hPa 0,0 l/m 0 min 0 min 0 W/m 6,4 km/h (2 Bft) 100,00 %
25.04.2024 03:14 5,3 C 4,4 C 1,7 C 92 % 1008,3 hPa 0,0 l/m 0 min 0 min 0 W/m 6,4 km/h (2 Bft) 100,00 %
25.04.2024 03:12 5,3 C 5,0 C 1,7 C 92 % 1008,3 hPa 0,0 l/m 0 min 0 min 0 W/m 6,4 km/h (2 Bft) 100,00 %
25.04.2024 03:10 5,3 C 5,0 C 1,7 C 92 % 1008,3 hPa 0,0 l/m 0 min 0 min 0 W/m 6,4 km/h (2 Bft) 97,87 %
25.04.2024 03:08 5,3 C 5,0 C 1,7 C 92 % 1008,3 hPa 0,0 l/m 0 min 2 min 0 W/m 9,7 km/h (2 Bft) 97,14 %
25.04.2024 03:06 5,3 C 5,0 C 1,7 C 92 % 1008,3 hPa 0,0 l/m 0 min 2 min 0 W/m 9,7 km/h (2 Bft) 96,55 %
25.04.2024 03:04 5,3 C 5,0 C 1,7 C 92 % 1008,3 hPa 0,0 l/m 0 min 0 min 0 W/m 12,9 km/h (3 Bft) 95,92 %
25.04.2024 03:02 5,3 C 5,0 C 1,7 C 92 % 1008,4 hPa 0,0 l/m 0 min 0 min 0 W/m 9,7 km/h (2 Bft) 97,87 %
25.04.2024 03:00 5,3 C 5,0 C 1,7 C 92 % 1008,4 hPa 0,0 l/m 0 min 0 min 0 W/m 12,9 km/h (3 Bft) 97,87 %
25.04.2024 02:58 5,3 C 5,0 C 1,7 C 92 % 1008,4 hPa 0,0 l/m 0 min 0 min 0 W/m 9,7 km/h (2 Bft) 97,87 %
25.04.2024 02:56 5,3 C 5,0 C 1,7 C 92 % 1008,4 hPa 0,0 l/m 0 min 0 min 0 W/m 6,4 km/h (2 Bft) 95,74 %
25.04.2024 02:54 5,3 C 5,0 C 1,7 C 92 % 1008,4 hPa 0,0 l/m 0 min 0 min 0 W/m 6,4 km/h (2 Bft) 97,83 %
25.04.2024 02:52 5,3 C 5,0 C 1,7 C 92 % 1008,4 hPa 0,0 l/m 0 min 0 min 0 W/m 12,9 km/h (3 Bft) 97,87 %
25.04.2024 02:50 5,3 C 5,0 C 1,7 C 92 % 1008,4 hPa 0,0 l/m 0 min 0 min 0 W/m 9,7 km/h (2 Bft) 97,87 %
25.04.2024 02:48 5,3 C 5,0 C 1,7 C 92 % 1008,4 hPa 0,0 l/m 0 min 0 min 0 W/m 9,7 km/h (2 Bft) 97,87 %
25.04.2024 02:46 5,3 C 5,0 C 1,7 C 92 % 1008,4 hPa 0,0 l/m 0 min 0 min 0 W/m 12,9 km/h (3 Bft) 97,87 %
25.04.2024 02:44 5,3 C 5,0 C 1,7 C 92 % 1008,4 hPa 0,0 l/m 0 min 0 min 0 W/m 6,4 km/h (2 Bft) 97,83 %
25.04.2024 02:42 5,3 C 5,0 C 1,7 C 92 % 1008,5 hPa 0,0 l/m 0 min 0 min 0 W/m 19,3 km/h (3 Bft) 97,87 %
25.04.2024 02:40 5,3 C 5,0 C 1,7 C 92 % 1008,4 hPa 0,0 l/m 0 min 0 min 0 W/m 12,9 km/h (3 Bft) 97,87 %
25.04.2024 02:38 5,3 C 5,0 C 1,7 C 92 % 1008,4 hPa 0,0 l/m 0 min 0 min 0 W/m 12,9 km/h (3 Bft) 97,87 %
25.04.2024 02:36 5,3 C 5,0 C 1,7 C 92 % 1008,4 hPa 0,0 l/m 0 min 0 min 0 W/m 9,7 km/h (2 Bft) 95,74 %
25.04.2024 02:34 5,4 C 5,0 C 1,7 C 92 % 1008,4 hPa 0,0 l/m 0 min 0 min 0 W/m 12,9 km/h (3 Bft) 97,87 %
25.04.2024 02:32 5,4 C 5,0 C 1,7 C 92 % 1008,4 hPa 0,0 l/m 0 min 0 min 0 W/m 6,4 km/h (2 Bft) 97,83 %
25.04.2024 02:30 5,4 C 5,0 C 1,7 C 92 % 1008,4 hPa 0,0 l/m 0 min 0 min 0 W/m 16,1 km/h (3 Bft) 95,74 %
25.04.2024 02:28 5,4 C 5,0 C 1,7 C 92 % 1008,4 hPa 0,0 l/m 0 min 0 min 0 W/m 12,9 km/h (3 Bft) 100,00 %
25.04.2024 02:26 5,4 C 5,0 C 1,7 C 92 % 1008,6 hPa 0,0 l/m 0 min 0 min 0 W/m 6,4 km/h (2 Bft) 100,00 %
25.04.2024 02:24 5,4 C 5,0 C 1,7 C 92 % 1008,6 hPa 0,0 l/m 0 min 0 min 0 W/m 12,9 km/h (3 Bft) 100,00 %
25.04.2024 02:23 5,4 C 5,0 C 1,7 C 92 % 1008,6 hPa 0,0 l/m 0 min 0 min 0 W/m 9,7 km/h (2 Bft) 100,00 %
25.04.2024 02:18 5,5 C 5,0 C 1,7 C 92 % 1008,6 hPa 0,0 l/m 0 min 0 min 0 W/m 9,7 km/h (2 Bft) 100,00 %
25.04.2024 02:10 5,4 C 5,0 C 1,7 C 91 % 1008,7 hPa 0,0 l/m 0 min 0 min 0 W/m 9,7 km/h (2 Bft) 95,65 %
25.04.2024 02:08 5,4 C 5,0 C 1,7 C 91 % 1008,6 hPa 0,0 l/m 0 min 0 min 0 W/m 3,2 km/h (1 Bft) 97,22 %
25.04.2024 02:06 5,4 C 5,0 C 1,7 C 91 % 1008,6 hPa 0,0 l/m 0 min 0 min 0 W/m 12,9 km/h (3 Bft) 98,28 %
25.04.2024 02:04 5,4 C 5,0 C 1,7 C 91 % 1008,7 hPa 0,0 l/m 0 min 0 min 0 W/m 6,4 km/h (2 Bft) 95,35 %
25.04.2024 02:02 5,4 C 5,0 C 1,7 C 91 % 1008,7 hPa 0,0 l/m 0 min 0 min 0 W/m 9,7 km/h (2 Bft) 97,87 %
25.04.2024 02:00 5,4 C 5,0 C 1,7 C 91 % 1008,7 hPa 0,0 l/m 0 min 0 min 0 W/m 6,4 km/h (2 Bft) 97,87 %
25.04.2024 01:58 5,3 C 5,0 C 1,7 C 91 % 1008,7 hPa 0,0 l/m 0 min 0 min 0 W/m 12,9 km/h (3 Bft) 97,87 %
25.04.2024 01:56 5,3 C 5,0 C 1,7 C 91 % 1008,7 hPa 0,0 l/m 0 min 0 min 0 W/m 6,4 km/h (2 Bft) 95,74 %
25.04.2024 01:54 5,3 C 5,0 C 1,7 C 91 % 1008,7 hPa 0,0 l/m 0 min 0 min 0 W/m 9,7 km/h (2 Bft) 97,83 %
25.04.2024 01:52 5,3 C 5,0 C 1,7 C 91 % 1008,8 hPa 0,0 l/m 0 min 0 min 0 W/m 9,7 km/h (2 Bft) 95,74 %
25.04.2024 01:50 5,3 C 5,0 C 1,7 C 91 % 1008,7 hPa 0,0 l/m 0 min 0 min 0 W/m 6,4 km/h (2 Bft) 95,74 %
25.04.2024 01:48 5,3 C 5,0 C 1,7 C 91 % 1008,8 hPa 0,0 l/m 0 min 0 min 0 W/m 6,4 km/h (2 Bft) 97,87 %
25.04.2024 01:46 5,3 C 5,0 C 1,7 C 91 % 1008,7 hPa 0,0 l/m 0 min 0 min 0 W/m 6,4 km/h (2 Bft) 95,74 %
25.04.2024 01:44 5,3 C 5,0 C 1,7 C 91 % 1008,7 hPa 0,0 l/m 0 min 0 min 0 W/m 6,4 km/h (2 Bft) 95,74 %
25.04.2024 01:42 5,3 C 5,0 C 1,7 C 91 % 1008,7 hPa 0,0 l/m 0 min 0 min 0 W/m 6,4 km/h (2 Bft) 97,83 %
25.04.2024 01:40 5,3 C 5,0 C 1,7 C 91 % 1008,8 hPa 0,0 l/m 0 min 0 min 0 W/m 6,4 km/h (2 Bft) 97,87 %
25.04.2024 01:38 5,3 C 5,0 C 1,7 C 91 % 1008,8 hPa 0,0 l/m 0 min 0 min 0 W/m 0,0 km/h (0 Bft) 97,87 %
25.04.2024 01:36 5,3 C 5,0 C 1,7 C 91 % 1008,9 hPa 0,0 l/m 0 min 0 min 0 W/m 6,4 km/h (2 Bft) 100,00 %
25.04.2024 01:34 5,3 C 5,0 C 1,7 C 91 % 1008,9 hPa 0,0 l/m 0 min 0 min 0 W/m 6,4 km/h (2 Bft) 97,87 %
25.04.2024 01:32 5,3 C 5,0 C 1,7 C 91 % 1008,9 hPa 0,0 l/m 0 min 0 min 0 W/m 6,4 km/h (2 Bft) 97,83 %
25.04.2024 01:30 5,3 C 5,0 C 1,7 C 91 % 1008,9 hPa 0,0 l/m 0 min 0 min 0 W/m 6,4 km/h (2 Bft) 100,00 %
25.04.2024 01:28 5,2 C 5,0 C 1,7 C 91 % 1008,9 hPa 0,0 l/m 0 min 0 min 0 W/m 3,2 km/h (1 Bft) 100,00 %
25.04.2024 01:26 5,2 C 5,0 C 1,7 C 91 % 1008,9 hPa 0,0 l/m 0 min 0 min 0 W/m 6,4 km/h (2 Bft) 100,00 %
25.04.2024 01:24 5,2 C 5,0 C 1,7 C 91 % 1009,0 hPa 0,0 l/m 0 min 0 min 0 W/m 6,4 km/h (2 Bft) 100,00 %
25.04.2024 01:22 5,2 C 5,0 C 1,7 C 91 % 1009,0 hPa 0,0 l/m 0 min 0 min 0 W/m 9,7 km/h (2 Bft) 100,00 %
25.04.2024 01:20 5,2 C 5,0 C 1,7 C 91 % 1008,9 hPa 0,0 l/m 0 min 0 min 0 W/m 9,7 km/h (2 Bft) 100,00 %
25.04.2024 01:18 5,2 C 5,0 C 1,7 C 91 % 1008,9 hPa 0,0 l/m 0 min 0 min 0 W/m 3,2 km/h (1 Bft) 100,00 %
25.04.2024 01:16 5,2 C 4,4 C 1,7 C 91 % 1008,9 hPa 0,0 l/m 0 min 0 min 0 W/m 3,2 km/h (1 Bft) 97,87 %
25.04.2024 01:14 5,2 C 4,4 C 1,7 C 91 % 1008,9 hPa 0,0 l/m 0 min 0 min 0 W/m 6,4 km/h (2 Bft) 97,87 %
25.04.2024 01:12 5,2 C 4,4 C 1,1 C 91 % 1008,9 hPa 0,0 l/m 0 min 0 min 0 W/m 6,4 km/h (2 Bft) 100,00 %
25.04.2024 01:10 5,2 C 4,4 C 1,1 C 92 % 1008,9 hPa 0,0 l/m 0 min 0 min 0 W/m 6,4 km/h (2 Bft) 100,00 %
25.04.2024 01:08 5,1 C 4,4 C 1,1 C 92 % 1009,0 hPa 0,0 l/m 0 min 0 min 0 W/m 3,2 km/h (1 Bft) 97,56 %
25.04.2024 01:06 5,1 C 4,4 C 1,1 C 92 % 1008,9 hPa 0,0 l/m 0 min 0 min 0 W/m 6,4 km/h (2 Bft) 98,08 %
25.04.2024 01:04 5,1 C 4,4 C 1,1 C 92 % 1009,0 hPa 0,0 l/m 0 min 0 min 0 W/m 3,2 km/h (1 Bft) 100,00 %
25.04.2024 01:02 5,1 C 4,4 C 1,1 C 92 % 1009,0 hPa 0,0 l/m 0 min 0 min 0 W/m 6,4 km/h (2 Bft) 100,00 %
25.04.2024 01:00 5,1 C 4,4 C 1,1 C 92 % 1009,0 hPa 0,0 l/m 0 min 0 min 0 W/m 6,4 km/h (2 Bft) 95,74 %
25.04.2024 00:58 5,1 C 4,4 C 1,1 C 92 % 1009,0 hPa 0,0 l/m 0 min 0 min 0 W/m 6,4 km/h (2 Bft) 97,87 %
25.04.2024 00:56 5,2 C 4,4 C 1,1 C 92 % 1009,0 hPa 0,0 l/m 0 min 0 min 0 W/m 12,9 km/h (3 Bft) 97,87 %
25.04.2024 00:54 5,2 C 4,4 C 1,1 C 92 % 1009,0 hPa 0,0 l/m 0 min 0 min 0 W/m 9,7 km/h (2 Bft) 93,62 %
25.04.2024 00:52 5,2 C 4,4 C 1,1 C 92 % 1008,9 hPa 0,0 l/m 0 min 0 min 0 W/m 9,7 km/h (2 Bft) 93,48 %
25.04.2024 00:50 5,2 C 4,4 C 1,1 C 92 % 1009,0 hPa 0,0 l/m 0 min 0 min 0 W/m 6,4 km/h (2 Bft) 97,87 %
25.04.2024 00:48 5,3 C 4,4 C 1,1 C 92 % 1008,9 hPa 0,0 l/m 0 min 0 min 0 W/m 3,2 km/h (1 Bft) 95,74 %
25.04.2024 00:46 5,3 C 4,4 C 1,1 C 92 % 1008,9 hPa 0,0 l/m 0 min 0 min 0 W/m 6,4 km/h (2 Bft) 95,74 %
25.04.2024 00:44 5,3 C 4,4 C 1,1 C 92 % 1009,0 hPa 0,0 l/m 0 min 0 min 0 W/m 3,2 km/h (1 Bft) 95,74 %
25.04.2024 00:42 5,3 C 4,4 C 1,7 C 92 % 1009,0 hPa 0,0 l/m 0 min 0 min 0 W/m 6,4 km/h (2 Bft) 93,48 %
25.04.2024 00:40 5,3 C 5,0 C 1,7 C 92 % 1008,9 hPa 0,0 l/m 0 min 0 min 0 W/m 6,4 km/h (2 Bft) 91,49 %
25.04.2024 00:38 5,3 C 5,0 C 1,7 C 92 % 1008,9 hPa 0,0 l/m 0 min 0 min 0 W/m 6,4 km/h (2 Bft) 95,74 %
25.04.2024 00:36 5,3 C 4,4 C 1,7 C 92 % 1008,9 hPa 0,0 l/m 0 min 0 min 0 W/m 3,2 km/h (1 Bft) 93,62 %
25.04.2024 00:34 5,3 C 4,4 C 1,7 C 92 % 1008,9 hPa 0,0 l/m 0 min 0 min 0 W/m 6,4 km/h (2 Bft) 97,87 %
25.04.2024 00:32 5,3 C 4,4 C 1,7 C 92 % 1008,9 hPa 0,0 l/m 0 min 0 min 0 W/m 12,9 km/h (3 Bft) 95,74 %
25.04.2024 00:30 5,3 C 4,4 C 1,7 C 92 % 1008,9 hPa 0,0 l/m 0 min 0 min 0 W/m 12,9 km/h (3 Bft) 95,65 %
25.04.2024 00:28 5,3 C 4,4 C 1,7 C 92 % 1008,9 hPa 0,0 l/m 0 min 0 min 0 W/m 9,7 km/h (2 Bft) 95,74 %
25.04.2024 00:26 5,2 C 4,4 C 1,7 C 92 % 1008,8 hPa 0,0 l/m 0 min 0 min 0 W/m 6,4 km/h (2 Bft) 93,62 %
25.04.2024 00:24 5,3 C 5,0 C 1,7 C 92 % 1008,8 hPa 0,0 l/m 0 min 0 min 0 W/m 6,4 km/h (2 Bft) 93,62 %
25.04.2024 00:22 5,2 C 5,0 C 1,7 C 92 % 1008,8 hPa 0,0 l/m 0 min 0 min 0 W/m 3,2 km/h (1 Bft) 51,06 %
25.04.2024 00:20 5,2 C 4,4 C 1,7 C 92 % 1008,8 hPa 0,0 l/m 0 min 0 min 0 W/m 3,2 km/h (1 Bft) 93,62 %
25.04.2024 00:18 5,2 C 4,4 C 1,7 C 92 % 1008,9 hPa 0,0 l/m 0 min 0 min 0 W/m 3,2 km/h (1 Bft) 91,30 %
25.04.2024 00:16 5,2 C 4,4 C 1,1 C 92 % 1008,8 hPa 0,0 l/m 0 min 0 min 0 W/m 3,2 km/h (1 Bft) 93,62 %
25.04.2024 00:14 5,2 C 4,4 C 1,1 C 92 % 1008,8 hPa 0,0 l/m 0 min 0 min 0 W/m 3,2 km/h (1 Bft) 93,62 %
25.04.2024 00:12 5,2 C 4,4 C 1,1 C 92 % 1008,8 hPa 0,0 l/m 0 min 0 min 0 W/m 6,4 km/h (2 Bft) 91,49 %
25.04.2024 00:10 5,2 C 4,4 C 1,1 C 92 % 1008,9 hPa 0,0 l/m 0 min 0 min 0 W/m 3,2 km/h (1 Bft) 93,62 %
25.04.2024 00:08 5,1 C 4,4 C 1,1 C 91 % 1008,8 hPa 0,0 l/m 0 min 0 min 0 W/m 3,2 km/h (1 Bft) 96,04 %
25.04.2024 00:04 5,1 C 4,4 C 1,1 C 91 % 1008,9 hPa 0,0 l/m 0 min 0 min 0 W/m 3,2 km/h (1 Bft) 93,88 %
25.04.2024 00:02 5,1 C 4,4 C 1,1 C 91 % 1008,9 hPa 0,0 l/m 0 min 0 min 0 W/m 3,2 km/h (1 Bft) 94,59 %
25.04.2024 00:00 5,1 C 4,4 C 1,1 C 91 % 1008,9 hPa 0,0 l/m 0 min 0 min 0 W/m 0,0 km/h (0 Bft) 97,83 %
24.04.2024 23:58 5,1 C 4,4 C 1,1 C 91 % 1008,9 hPa 0,0 l/m 0 min 0 min 0 W/m 0,0 km/h (0 Bft) 100,00 %
24.04.2024 23:56 5,1 C 4,4 C 1,1 C 91 % 1008,9 hPa 0,0 l/m 0 min 0 min 0 W/m 3,2 km/h (1 Bft) 100,00 %
24.04.2024 23:54 5,2 C 4,4 C 1,1 C 91 % 1008,9 hPa 0,0 l/m 0 min 0 min 0 W/m 3,2 km/h (1 Bft) 95,74 %
24.04.2024 23:52 5,2 C 4,4 C 1,1 C 91 % 1008,9 hPa 0,0 l/m 0 min 0 min 0 W/m 3,2 km/h (1 Bft) 97,87 %
24.04.2024 23:50 5,2 C 4,4 C 1,1 C 91 % 1008,9 hPa 0,0 l/m 0 min 0 min 0 W/m 9,7 km/h (2 Bft) 97,87 %
24.04.2024 23:48 5,2 C 4,4 C 1,1 C 91 % 1008,9 hPa 0,0 l/m 0 min 0 min 0 W/m 0,0 km/h (0 Bft) 100,00 %
24.04.2024 23:46 5,2 C 4,4 C 1,1 C 91 % 1008,9 hPa 0,0 l/m 0 min 0 min 0 W/m 3,2 km/h (1 Bft) 97,87 %
24.04.2024 23:44 5,2 C 4,4 C 1,1 C 91 % 1008,9 hPa 0,0 l/m 0 min 0 min 0 W/m 6,4 km/h (2 Bft) 100,00 %
24.04.2024 23:42 5,3 C 4,4 C 1,1 C 91 % 1008,9 hPa 0,0 l/m 0 min 0 min 0 W/m 3,2 km/h (1 Bft) 100,00 %
24.04.2024 23:40 5,3 C 4,4 C 1,1 C 91 % 1008,9 hPa 0,0 l/m 0 min 0 min 0 W/m 3,2 km/h (1 Bft) 100,00 %
24.04.2024 23:38 5,3 C 4,4 C 1,1 C 91 % 1008,9 hPa 0,0 l/m 0 min 0 min 0 W/m 6,4 km/h (2 Bft) 100,00 %
24.04.2024 23:36 5,3 C 4,4 C 1,1 C 91 % 1009,0 hPa 0,0 l/m 0 min 0 min 0 W/m 6,4 km/h (2 Bft) 100,00 %
24.04.2024 23:34 5,3 C 4,4 C 1,1 C 90 % 1008,9 hPa 0,0 l/m 0 min 0 min 0 W/m 6,4 km/h (2 Bft) 100,00 %
24.04.2024 23:32 5,3 C 4,4 C 1,1 C 90 % 1008,9 hPa 0,0 l/m 0 min 0 min 0 W/m 9,7 km/h (2 Bft) 100,00 %
24.04.2024 23:30 5,4 C 4,4 C 1,1 C 90 % 1009,0 hPa 0,0 l/m 0 min 0 min 0 W/m 6,4 km/h (2 Bft) 100,00 %
24.04.2024 23:28 5,4 C 4,4 C 1,1 C 90 % 1009,0 hPa 0,0 l/m 0 min 0 min 0 W/m 3,2 km/h (1 Bft) 100,00 %
24.04.2024 23:26 5,4 C 4,4 C 1,1 C 90 % 1008,9 hPa 0,0 l/m 0 min 0 min 0 W/m 6,4 km/h (2 Bft) 100,00 %
24.04.2024 23:24 5,4 C 4,4 C 1,1 C 90 % 1009,0 hPa 0,0 l/m 0 min 0 min 0 W/m 6,4 km/h (2 Bft) 100,00 %
24.04.2024 23:22 5,5 C 4,4 C 1,1 C 90 % 1008,9 hPa 0,0 l/m 0 min 0 min 0 W/m 3,2 km/h (1 Bft) 71,43 %
24.04.2024 23:20 5,5 C 4,4 C 1,1 C 90 % 1009,0 hPa 0,0 l/m 0 min 0 min 0 W/m 6,4 km/h (2 Bft) 82,98 %
24.04.2024 23:18 5,6 C 4,4 C 1,7 C 90 % 1009,0 hPa 0,0 l/m 0 min 0 min 0 W/m 6,4 km/h (2 Bft) 100,00 %
24.04.2024 23:16 5,6 C 4,4 C 1,1 C 90 % 1009,0 hPa 0,0 l/m 0 min 0 min 0 W/m 9,7 km/h (2 Bft) 100,00 %
24.04.2024 23:14 5,6 C 5,0 C 1,7 C 90 % 1009,1 hPa 0,0 l/m 0 min 0 min 0 W/m 6,4 km/h (2 Bft) 100,00 %
24.04.2024 23:12 5,6 C 5,0 C 1,7 C 90 % 1009,0 hPa 0,0 l/m 0 min 0 min 0 W/m 9,7 km/h (2 Bft) 100,00 %
24.04.2024 23:10 5,6 C 5,0 C 1,7 C 90 % 1009,0 hPa 0,0 l/m 0 min 0 min 0 W/m 3,2 km/h (1 Bft) 100,00 %
24.04.2024 23:08 5,7 C 5,0 C 1,7 C 90 % 1009,0 hPa 0,0 l/m 0 min 0 min 0 W/m 9,7 km/h (2 Bft) 100,00 %
24.04.2024 23:06 5,7 C 5,0 C 1,7 C 90 % 1009,0 hPa 0,0 l/m 0 min 0 min 0 W/m 3,2 km/h (1 Bft) 98,31 %
24.04.2024 23:04 5,7 C 5,0 C 1,7 C 90 % 1009,1 hPa 0,0 l/m 0 min 0 min 0 W/m 9,7 km/h (2 Bft) 100,00 %
24.04.2024 23:02 5,7 C 5,0 C 1,7 C 90 % 1009,0 hPa 0,0 l/m 0 min 0 min 0 W/m 9,7 km/h (2 Bft) 100,00 %
24.04.2024 23:00 5,7 C 5,0 C 1,7 C 90 % 1009,0 hPa 0,0 l/m 0 min 0 min 0 W/m 12,9 km/h (3 Bft) 100,00 %
24.04.2024 22:58 5,7 C 5,0 C 1,7 C 90 % 1009,0 hPa 0,0 l/m 0 min 0 min 0 W/m 12,9 km/h (3 Bft) 100,00 %
24.04.2024 22:56 5,7 C 5,0 C 1,7 C 90 % 1009,1 hPa 0,0 l/m 0 min 0 min 0 W/m 12,9 km/h (3 Bft) 100,00 %
24.04.2024 22:54 5,8 C 5,0 C 1,7 C 90 % 1009,0 hPa 0,0 l/m 0 min 0 min 0 W/m 12,9 km/h (3 Bft) 100,00 %
24.04.2024 22:52 5,8 C 5,0 C 1,7 C 90 % 1009,0 hPa 0,0 l/m 0 min 0 min 0 W/m 9,7 km/h (2 Bft) 100,00 %
24.04.2024 22:50 5,8 C 5,0 C 1,7 C 90 % 1009,0 hPa 0,0 l/m 0 min 0 min 0 W/m 6,4 km/h (2 Bft) 100,00 %
24.04.2024 22:48 5,8 C 5,0 C 1,7 C 90 % 1009,1 hPa 0,0 l/m 0 min 0 min 0 W/m 9,7 km/h (2 Bft) 97,87 %
24.04.2024 22:46 5,8 C 5,0 C 1,7 C 90 % 1009,1 hPa 0,0 l/m 0 min 0 min 0 W/m 6,4 km/h (2 Bft) 97,87 %
24.04.2024 22:44 5,8 C 5,0 C 1,7 C 90 % 1009,1 hPa 0,0 l/m 0 min 0 min 0 W/m 9,7 km/h (2 Bft) 97,87 %
24.04.2024 22:42 5,9 C 5,0 C 1,7 C 90 % 1009,1 hPa 0,0 l/m 0 min 0 min 0 W/m 9,7 km/h (2 Bft) 95,74 %
24.04.2024 22:40 5,9 C 5,0 C 1,7 C 90 % 1009,0 hPa 0,0 l/m 0 min 0 min 0 W/m 9,7 km/h (2 Bft) 97,83 %
24.04.2024 22:38 5,9 C 5,0 C 1,7 C 90 % 1009,0 hPa 0,0 l/m 0 min 0 min 0 W/m 9,7 km/h (2 Bft) 97,87 %
24.04.2024 22:36 5,9 C 5,0 C 1,7 C 90 % 1009,0 hPa 0,0 l/m 0 min 0 min 0 W/m 12,9 km/h (3 Bft) 95,74 %
24.04.2024 22:34 5,9 C 5,0 C 1,7 C 90 % 1009,0 hPa 0,0 l/m 0 min 0 min 0 W/m 6,4 km/h (2 Bft) 97,87 %
24.04.2024 22:32 5,9 C 5,6 C 1,7 C 90 % 1009,0 hPa 0,0 l/m 0 min 0 min 0 W/m 9,7 km/h (2 Bft) 93,62 %
24.04.2024 22:30 5,9 C 5,6 C 1,7 C 90 % 1009,0 hPa 0,0 l/m 0 min 0 min 0 W/m 9,7 km/h (2 Bft) 95,74 %
24.04.2024 22:28 5,9 C 5,6 C 1,7 C 89 % 1009,0 hPa 0,0 l/m 0 min 0 min 0 W/m 6,4 km/h (2 Bft) 95,65 %
24.04.2024 22:26 5,9 C 5,0 C 1,7 C 89 % 1008,9 hPa 0,0 l/m 0 min 0 min 0 W/m 6,4 km/h (2 Bft) 95,74 %
24.04.2024 22:24 5,9 C 5,0 C 1,7 C 89 % 1008,9 hPa 0,0 l/m 0 min 0 min 0 W/m 12,9 km/h (3 Bft) 93,62 %
24.04.2024 22:22 5,9 C 5,0 C 1,7 C 89 % 1008,9 hPa 0,0 l/m 0 min 0 min 0 W/m 6,4 km/h (2 Bft) 95,74 %
24.04.2024 22:20 5,9 C 5,0 C 1,7 C 89 % 1008,8 hPa 0,0 l/m 0 min 0 min 0 W/m 9,7 km/h (2 Bft) 95,74 %
24.04.2024 22:18 5,9 C 5,0 C 1,7 C 89 % 1008,9 hPa 0,0 l/m 0 min 0 min 0 W/m 6,4 km/h (2 Bft) 97,87 %
24.04.2024 22:16 5,9 C 5,0 C 1,7 C 89 % 1008,9 hPa 0,0 l/m 0 min 0 min 0 W/m 3,2 km/h (1 Bft) 95,65 %
24.04.2024 22:14 5,9 C 5,0 C 1,7 C 89 % 1008,8 hPa 0,0 l/m 0 min 0 min 0 W/m 6,4 km/h (2 Bft) 95,74 %
24.04.2024 22:12 6,0 C 5,0 C 1,7 C 89 % 1008,8 hPa 0,0 l/m 0 min 0 min 0 W/m 6,4 km/h (2 Bft) 95,74 %
24.04.2024 22:10 6,0 C 5,0 C 1,7 C 89 % 1008,8 hPa 0,0 l/m 0 min 0 min 0 W/m 6,4 km/h (2 Bft) 97,87 %
24.04.2024 22:08 6,1 C 5,0 C 1,7 C 88 % 1008,8 hPa 0,0 l/m 0 min 0 min 0 W/m 0,0 km/h (0 Bft) 96,55 %
24.04.2024 22:06 6,1 C 5,0 C 1,7 C 89 % 1008,8 hPa 0,0 l/m 0 min 0 min 0 W/m 6,4 km/h (2 Bft) 98,46 %
24.04.2024 22:04 6,1 C 5,0 C 1,7 C 88 % 1008,7 hPa 0,0 l/m 0 min 0 min 0 W/m 6,4 km/h (2 Bft) 97,62 %
24.04.2024 22:02 6,1 C 5,0 C 1,7 C 88 % 1008,7 hPa 0,0 l/m 0 min 0 min 0 W/m 3,2 km/h (1 Bft) 97,87 %
24.04.2024 22:00 6,1 C 5,0 C 1,7 C 88 % 1008,7 hPa 0,0 l/m 0 min 0 min 0 W/m 9,7 km/h (2 Bft) 95,65 %
24.04.2024 21:58 6,2 C 5,0 C 1,7 C 88 % 1008,8 hPa 0,0 l/m 0 min 0 min 0 W/m 6,4 km/h (2 Bft) 97,87 %
24.04.2024 21:56 6,2 C 5,0 C 1,7 C 88 % 1008,7 hPa 0,0 l/m 0 min 0 min 0 W/m 3,2 km/h (1 Bft) 97,87 %
24.04.2024 21:54 6,2 C 5,0 C 1,7 C 87 % 1008,7 hPa 0,0 l/m 0 min 0 min 0 W/m 3,2 km/h (1 Bft) 97,87 %
24.04.2024 21:52 6,2 C 5,0 C 1,7 C 87 % 1008,7 hPa 0,0 l/m 0 min 0 min 0 W/m 6,4 km/h (2 Bft) 97,87 %
24.04.2024 21:50 6,2 C 5,0 C 1,7 C 87 % 1008,7 hPa 0,0 l/m 0 min 0 min 0 W/m 9,7 km/h (2 Bft) 97,87 %
24.04.2024 21:48 6,3 C 5,0 C 1,7 C 87 % 1008,7 hPa 0,0 l/m 0 min 0 min 0 W/m 6,4 km/h (2 Bft) 100,00 %
24.04.2024 21:46 6,3 C 5,6 C 2,2 C 87 % 1008,8 hPa 0,0 l/m 0 min 0 min 0 W/m 3,2 km/h (1 Bft) 100,00 %
24.04.2024 21:44 6,3 C 5,6 C 2,2 C 87 % 1008,7 hPa 0,0 l/m 0 min 0 min 0 W/m 6,4 km/h (2 Bft) 97,87 %
24.04.2024 21:42 6,3 C 5,6 C 2,2 C 87 % 1008,7 hPa 0,0 l/m 0 min 0 min 0 W/m 12,9 km/h (3 Bft) 97,87 %
24.04.2024 21:40 6,3 C 5,6 C 2,2 C 87 % 1008,7 hPa 0,0 l/m 0 min 0 min 0 W/m 9,7 km/h (2 Bft) 100,00 %
24.04.2024 21:38 6,3 C 5,6 C 2,2 C 87 % 1008,7 hPa 0,0 l/m 0 min 0 min 0 W/m 16,1 km/h (3 Bft) 97,87 %
24.04.2024 21:36 6,4 C 5,6 C 2,2 C 87 % 1008,6 hPa 0,0 l/m 0 min 0 min 0 W/m 12,9 km/h (3 Bft) 100,00 %
24.04.2024 21:34 6,4 C 5,6 C 2,2 C 87 % 1008,6 hPa 0,0 l/m 0 min 0 min 0 W/m 16,1 km/h (3 Bft) 97,87 %
24.04.2024 21:32 6,4 C 5,6 C 2,2 C 87 % 1008,6 hPa 0,0 l/m 0 min 0 min 0 W/m 16,1 km/h (3 Bft) 100,00 %
24.04.2024 21:30 6,5 C 5,6 C 2,2 C 87 % 1008,7 hPa 0,0 l/m 0 min 0 min 0 W/m 19,3 km/h (3 Bft) 100,00 %
24.04.2024 21:28 6,5 C 5,6 C 2,2 C 87 % 1008,6 hPa 0,0 l/m 0 min 0 min 0 W/m 9,7 km/h (2 Bft) 100,00 %
24.04.2024 21:26 6,5 C 6,1 C 2,2 C 87 % 1008,7 hPa 0,0 l/m 0 min 0 min 0 W/m 19,3 km/h (3 Bft) 97,83 %
24.04.2024 21:24 6,5 C 6,1 C 2,2 C 86 % 1008,6 hPa 0,0 l/m 0 min 0 min 0 W/m 12,9 km/h (3 Bft) 97,87 %
24.04.2024 21:22 6,5 C 6,1 C 2,2 C 86 % 1008,6 hPa 0,0 l/m 0 min 0 min 0 W/m 12,9 km/h (3 Bft) 95,74 %
24.04.2024 21:20 6,6 C 6,1 C 2,2 C 86 % 1008,7 hPa 0,0 l/m 0 min 0 min 0 W/m 19,3 km/h (3 Bft) 97,87 %
24.04.2024 21:18 6,6 C 6,1 C 2,2 C 86 % 1008,6 hPa 0,0 l/m 0 min 0 min 0 W/m 9,7 km/h (2 Bft) 97,87 %
24.04.2024 21:16 6,6 C 6,1 C 2,2 C 86 % 1008,6 hPa 0,0 l/m 0 min 0 min 0 W/m 12,9 km/h (3 Bft) 93,62 %
24.04.2024 21:14 6,6 C 6,1 C 2,2 C 86 % 1008,5 hPa 0,0 l/m 0 min 0 min 0 W/m 25,7 km/h (4 Bft) 97,83 %
24.04.2024 21:12 6,6 C 6,1 C 2,2 C 86 % 1008,5 hPa 0,0 l/m 0 min 0 min 0 W/m 16,1 km/h (3 Bft) 97,87 %
24.04.2024 21:10 6,7 C 6,1 C 2,8 C 86 % 1008,6 hPa 0,0 l/m 0 min 0 min 0 W/m 19,3 km/h (3 Bft) 93,62 %
24.04.2024 21:08 6,7 C 6,1 C 2,8 C 86 % 1008,6 hPa 0,0 l/m 0 min 0 min 0 W/m 22,5 km/h (4 Bft) 100,00 %
24.04.2024 21:06 6,7 C 6,1 C 2,8 C 86 % 1008,5 hPa 0,0 l/m 0 min 0 min 0 W/m 19,3 km/h (3 Bft) 95,00 %
24.04.2024 21:04 6,7 C 6,1 C 2,8 C 86 % 1008,4 hPa 0,0 l/m 0 min 0 min 0 W/m 12,9 km/h (3 Bft) 93,62 %
24.04.2024 21:02 6,7 C 6,1 C 2,8 C 86 % 1008,5 hPa 0,0 l/m 0 min 0 min 0 W/m 22,5 km/h (4 Bft) 93,48 %
24.04.2024 21:00 6,7 C 6,1 C 2,8 C 86 % 1008,4 hPa 0,0 l/m 0 min 0 min 0 W/m 25,7 km/h (4 Bft) 93,62 %
24.04.2024 20:58 6,8 C 6,1 C 2,8 C 86 % 1008,4 hPa 0,0 l/m 0 min 0 min 0 W/m 32,2 km/h (5 Bft) 95,74 %
24.04.2024 20:56 6,8 C 6,1 C 2,8 C 86 % 1008,4 hPa 0,0 l/m 0 min 0 min 0 W/m 25,7 km/h (4 Bft) 93,62 %
24.04.2024 20:54 6,8 C 6,1 C 2,8 C 86 % 1008,4 hPa 0,0 l/m 0 min 0 min 0 W/m 19,3 km/h (3 Bft) 91,49 %
24.04.2024 20:52 6,8 C 6,1 C 2,8 C 86 % 1008,4 hPa 0,0 l/m 0 min 0 min 0 W/m 25,7 km/h (4 Bft) 93,62 %
24.04.2024 20:50 6,8 C 6,1 C 2,8 C 86 % 1008,3 hPa 0,0 l/m 0 min 0 min 0 W/m 22,5 km/h (4 Bft) 95,65 %
24.04.2024 20:48 6,8 C 6,1 C 2,8 C 86 % 1008,4 hPa 0,0 l/m 0 min 0 min 0 W/m 12,9 km/h (3 Bft) 93,62 %
24.04.2024 20:46 6,8 C 6,1 C 2,8 C 86 % 1008,3 hPa 0,0 l/m 0 min 0 min 0 W/m 22,5 km/h (4 Bft) 95,74 %
24.04.2024 20:44 6,8 C 6,1 C 2,8 C 86 % 1008,3 hPa 0,0 l/m 0 min 0 min 0 W/m 6,4 km/h (2 Bft) 95,74 %
24.04.2024 20:42 6,8 C 6,1 C 2,8 C 86 % 1008,3 hPa 0,0 l/m 0 min 0 min 0 W/m 9,7 km/h (2 Bft) 95,74 %
24.04.2024 20:40 6,8 C 6,1 C 2,8 C 86 % 1008,2 hPa 0,0 l/m 0 min 0 min 0 W/m 16,1 km/h (3 Bft) 95,74 %
24.04.2024 20:38 6,8 C 6,1 C 2,8 C 86 % 1008,3 hPa 0,0 l/m 0 min 0 min 1 W/m 19,3 km/h (3 Bft) 93,48 %
24.04.2024 20:36 6,8 C 6,1 C 2,8 C 86 % 1008,3 hPa 0,0 l/m 0 min 0 min 5 W/m 16,1 km/h (3 Bft) 95,74 %
24.04.2024 20:34 6,8 C 6,1 C 2,8 C 86 % 1008,3 hPa 0,0 l/m 0 min 0 min 6 W/m 22,5 km/h (4 Bft) 93,62 %
24.04.2024 20:32 6,8 C 6,1 C 2,8 C 85 % 1008,3 hPa 0,0 l/m 0 min 0 min 7 W/m 25,7 km/h (4 Bft) 97,87 %
24.04.2024 20:30 6,8 C 6,1 C 2,8 C 85 % 1008,3 hPa 0,0 l/m 0 min 0 min 7 W/m 25,7 km/h (4 Bft) 97,87 %
24.04.2024 20:28 6,8 C 6,1 C 2,8 C 86 % 1008,3 hPa 0,0 l/m 0 min 0 min 7 W/m 22,5 km/h (4 Bft) 100,00 %
24.04.2024 20:26 6,8 C 6,1 C 2,8 C 85 % 1008,3 hPa 0,0 l/m 0 min 0 min 8 W/m 16,1 km/h (3 Bft) 100,00 %
24.04.2024 20:24 6,8 C 6,1 C 2,8 C 85 % 1008,2 hPa 0,0 l/m 0 min 0 min 10 W/m 16,1 km/h (3 Bft) 97,87 %
24.04.2024 20:22 6,8 C 6,1 C 2,8 C 85 % 1008,3 hPa 0,0 l/m 0 min 0 min 11 W/m 25,7 km/h (4 Bft) 100,00 %
24.04.2024 20:20 6,8 C 6,1 C 2,8 C 85 % 1008,2 hPa 0,0 l/m 0 min 0 min 11 W/m 22,5 km/h (4 Bft) 100,00 %
24.04.2024 20:18 6,9 C 6,1 C 2,8 C 86 % 1008,3 hPa 0,0 l/m 0 min 0 min 14 W/m 32,2 km/h (5 Bft) 100,00 %
24.04.2024 20:16 6,9 C 6,1 C 2,8 C 86 % 1008,2 hPa 0,0 l/m 0 min 0 min 16 W/m 22,5 km/h (4 Bft) 100,00 %
24.04.2024 20:14 6,9 C 6,1 C 2,8 C 86 % 1008,2 hPa 0,0 l/m 0 min 0 min 18 W/m 19,3 km/h (3 Bft) 100,00 %
24.04.2024 20:12 6,9 C 6,1 C 2,8 C 86 % 1008,2 hPa 0,0 l/m 0 min 0 min 19 W/m 25,7 km/h (4 Bft) 97,87 %
24.04.2024 20:10 7,0 C 6,7 C 2,8 C 86 % 1008,2 hPa 0,0 l/m 0 min 0 min 20 W/m 19,3 km/h (3 Bft) 97,87 %
24.04.2024 20:08 7,0 C 6,7 C 2,8 C 86 % 1008,2 hPa 0,0 l/m 0 min 0 min 21 W/m 16,1 km/h (3 Bft) 100,00 %
24.04.2024 20:06 7,1 C 6,7 C 2,8 C 86 % 1008,2 hPa 0,0 l/m 0 min 0 min 24 W/m 29,0 km/h (5 Bft) 98,31 %
24.04.2024 20:04 7,1 C 6,7 C 2,8 C 86 % 1008,2 hPa 0,0 l/m 0 min 0 min 28 W/m 9,7 km/h (2 Bft) 97,96 %
24.04.2024 20:02 7,1 C 6,7 C 2,8 C 86 % 1008,2 hPa 0,0 l/m 0 min 0 min 35 W/m 12,9 km/h (3 Bft) 97,87 %
24.04.2024 20:00 7,1 C 6,7 C 2,8 C 86 % 1008,2 hPa 0,0 l/m 0 min 0 min 35 W/m 12,9 km/h (3 Bft) 97,87 %
24.04.2024 19:58 7,1 C 6,7 C 2,8 C 86 % 1008,1 hPa 0,0 l/m 0 min 0 min 36 W/m 22,5 km/h (4 Bft) 97,87 %
24.04.2024 19:56 7,1 C 6,7 C 2,8 C 86 % 1008,1 hPa 0,0 l/m 0 min 0 min 35 W/m 16,1 km/h (3 Bft) 97,83 %
24.04.2024 19:54 7,1 C 6,7 C 2,8 C 86 % 1008,1 hPa 0,0 l/m 0 min 0 min 37 W/m 25,7 km/h (4 Bft) 97,78 %
24.04.2024 19:52 7,1 C 6,7 C 2,8 C 86 % 1008,0 hPa 0,0 l/m 0 min 0 min 40 W/m 19,3 km/h (3 Bft) 97,16 %
24.04.2024 19:50 7,2 C 6,7 C 2,8 C 86 % 1008,1 hPa 0,0 l/m 0 min 0 min 42 W/m 22,5 km/h (4 Bft) 91,49 %
24.04.2024 19:48 7,2 C 6,7 C 3,3 C 86 % 1008,1 hPa 0,0 l/m 0 min 0 min 45 W/m 25,7 km/h (4 Bft) 95,74 %
24.04.2024 19:46 7,2 C 6,7 C 3,3 C 86 % 1008,1 hPa 0,0 l/m 0 min 0 min 51 W/m 25,7 km/h (4 Bft) 97,87 %
24.04.2024 19:44 7,2 C 6,7 C 3,3 C 86 % 1008,0 hPa 0,0 l/m 0 min 0 min 57 W/m 16,1 km/h (3 Bft) 97,83 %
24.04.2024 19:42 7,2 C 6,7 C 3,3 C 86 % 1008,1 hPa 0,0 l/m 0 min 0 min 53 W/m 25,7 km/h (4 Bft) 95,74 %
24.04.2024 19:40 7,3 C 6,7 C 3,3 C 86 % 1008,0 hPa 0,0 l/m 0 min 0 min 43 W/m 29,0 km/h (5 Bft) 97,87 %
24.04.2024 19:38 7,3 C 6,7 C 3,3 C 86 % 1007,9 hPa 0,0 l/m 0 min 0 min 39 W/m 32,2 km/h (5 Bft) 97,87 %
24.04.2024 19:36 7,4 C 7,2 C 3,3 C 86 % 1008,0 hPa 0,0 l/m 0 min 0 min 37 W/m 22,5 km/h (4 Bft) 97,87 %
24.04.2024 19:34 7,4 C 7,2 C 3,3 C 86 % 1007,9 hPa 0,0 l/m 0 min 0 min 37 W/m 22,5 km/h (4 Bft) 95,74 %
24.04.2024 19:32 7,4 C 7,2 C 3,3 C 86 % 1007,9 hPa 0,0 l/m 0 min 0 min 38 W/m 29,0 km/h (5 Bft) 97,83 %
24.04.2024 19:30 7,4 C 7,2 C 3,3 C 87 % 1008,0 hPa 0,0 l/m 0 min 0 min 37 W/m 29,0 km/h (5 Bft) 97,87 %
24.04.2024 19:28 7,5 C 7,2 C 3,3 C 87 % 1007,9 hPa 0,0 l/m 0 min 0 min 45 W/m 25,7 km/h (4 Bft) 97,87 %
24.04.2024 19:26 7,6 C 7,2 C 3,3 C 87 % 1007,9 hPa 0,0 l/m 0 min 0 min 60 W/m 32,2 km/h (5 Bft) 97,87 %
24.04.2024 19:24 7,6 C 7,2 C 3,3 C 87 % 1007,9 hPa 0,0 l/m 0 min 0 min 57 W/m 25,7 km/h (4 Bft) 95,74 %
24.04.2024 19:22 7,6 C 7,2 C 3,3 C 87 % 1007,9 hPa 0,0 l/m 0 min 0 min 55 W/m 19,3 km/h (3 Bft) 97,87 %
24.04.2024 19:20 7,6 C 7,8 C 3,3 C 87 % 1007,9 hPa 0,0 l/m 0 min 0 min 68 W/m 29,0 km/h (5 Bft) 97,83 %
24.04.2024 19:18 7,6 C 7,8 C 3,9 C 88 % 1007,8 hPa 0,0 l/m 0 min 0 min 86 W/m 35,4 km/h (5 Bft) 97,87 %
24.04.2024 19:16 7,7 C 7,8 C 3,9 C 88 % 1007,9 hPa 0,0 l/m 0 min 0 min 91 W/m 19,3 km/h (3 Bft) 95,74 %
24.04.2024 19:14 7,6 C 7,8 C 3,9 C 88 % 1007,9 hPa 0,0 l/m 0 min 0 min 85 W/m 16,1 km/h (3 Bft) 95,74 %
24.04.2024 19:12 7,6 C 7,8 C 3,9 C 88 % 1007,8 hPa 0,0 l/m 0 min 0 min 93 W/m 22,5 km/h (4 Bft) 95,74 %
24.04.2024 19:10 7,6 C 7,8 C 3,9 C 88 % 1007,8 hPa 0,0 l/m 0 min 0 min 103 W/m 29,0 km/h (5 Bft) 95,74 %
24.04.2024 19:08 7,6 C 7,8 C 3,9 C 88 % 1007,8 hPa 0,0 l/m 0 min 0 min 100 W/m 22,5 km/h (4 Bft) 97,14 %
24.04.2024 19:06 7,6 C 7,8 C 3,9 C 88 % 1007,8 hPa 0,0 l/m 0 min 0 min 105 W/m 22,5 km/h (4 Bft) 93,10 %
24.04.2024 19:04 7,6 C 7,8 C 3,9 C 88 % 1007,7 hPa 0,0 l/m 0 min 0 min 110 W/m 25,7 km/h (4 Bft) 97,96 %
24.04.2024 19:02 7,6 C 7,8 C 3,9 C 88 % 1007,8 hPa 0,0 l/m 0 min 0 min 107 W/m 35,4 km/h (5 Bft) 97,87 %
24.04.2024 19:00 7,5 C 7,8 C 3,3 C 88 % 1007,8 hPa 0,0 l/m 0 min 0 min 98 W/m 22,5 km/h (4 Bft) 97,87 %
24.04.2024 18:58 7,5 C 7,8 C 3,3 C 88 % 1007,7 hPa 0,0 l/m 0 min 0 min 100 W/m 25,7 km/h (4 Bft) 97,83 %
24.04.2024 18:56 7,5 C 7,8 C 3,3 C 88 % 1007,7 hPa 0,0 l/m 0 min 0 min 106 W/m 19,3 km/h (3 Bft) 95,74 %
24.04.2024 18:54 7,4 C 7,8 C 3,3 C 89 % 1007,7 hPa 0,0 l/m 0 min 0 min 116 W/m 19,3 km/h (3 Bft) 95,74 %
24.04.2024 18:52 7,4 C 7,2 C 3,3 C 89 % 1007,6 hPa 0,0 l/m 0 min 0 min 124 W/m 22,5 km/h (4 Bft) 100,00 %
24.04.2024 18:50 7,4 C 7,2 C 3,3 C 89 % 1007,6 hPa 0,0 l/m 0 min 0 min 124 W/m 19,3 km/h (3 Bft) 97,87 %
24.04.2024 18:48 7,4 C 7,2 C 3,3 C 89 % 1007,7 hPa 0,0 l/m 0 min 0 min 123 W/m 19,3 km/h (3 Bft) 97,87 %
24.04.2024 18:46 7,4 C 7,2 C 3,3 C 89 % 1007,6 hPa 0,0 l/m 0 min 0 min 113 W/m 12,9 km/h (3 Bft) 100,00 %
24.04.2024 18:44 7,4 C 7,2 C 2,8 C 89 % 1007,7 hPa 0,0 l/m 0 min 0 min 102 W/m 16,1 km/h (3 Bft) 100,00 %
24.04.2024 18:42 7,4 C 7,2 C 2,8 C 89 % 1007,7 hPa 0,0 l/m 0 min 0 min 93 W/m 25,7 km/h (4 Bft) 97,87 %
24.04.2024 18:40 7,4 C 7,2 C 2,8 C 89 % 1007,8 hPa 0,0 l/m 0 min 0 min 83 W/m 25,7 km/h (4 Bft) 100,00 %
24.04.2024 18:38 7,5 C 7,2 C 2,8 C 89 % 1007,7 hPa 0,0 l/m 0 min 0 min 92 W/m 32,2 km/h (5 Bft) 100,00 %
24.04.2024 18:36 7,5 C 7,2 C 2,8 C 90 % 1007,7 hPa 0,0 l/m 0 min 0 min 104 W/m 29,0 km/h (5 Bft) 97,87 %
24.04.2024 18:34 7,6 C 7,8 C 2,8 C 90 % 1007,8 hPa 0,0 l/m 0 min 0 min 103 W/m 22,5 km/h (4 Bft) 100,00 %
24.04.2024 18:32 7,5 C 8,3 C 2,8 C 90 % 1007,8 hPa 0,0 l/m 0 min 0 min 157 W/m 16,1 km/h (3 Bft) 100,00 %
24.04.2024 18:30 7,5 C 8,9 C 2,8 C 90 % 1007,8 hPa 0,0 l/m 2 min 0 min 186 W/m 32,2 km/h (5 Bft) 97,87 %
24.04.2024 18:28 7,5 C 8,3 C 2,8 C 91 % 1007,7 hPa 0,0 l/m 0 min 0 min 127 W/m 22,5 km/h (4 Bft) 100,00 %
24.04.2024 18:26 7,4 C 8,9 C 2,8 C 91 % 1007,7 hPa 0,0 l/m 2 min 0 min 184 W/m 25,7 km/h (4 Bft) 97,87 %
24.04.2024 18:24 7,4 C 10,6 C 3,3 C 91 % 1007,7 hPa 0,0 l/m 2 min 0 min 344 W/m 16,1 km/h (3 Bft) 95,74 %
24.04.2024 18:22 7,3 C 11,1 C 3,3 C 91 % 1007,6 hPa 0,0 l/m 2 min 0 min 316 W/m 12,9 km/h (3 Bft) 100,00 %
24.04.2024 18:20 7,1 C 11,7 C 3,3 C 91 % 1007,7 hPa 0,0 l/m 2 min 0 min 339 W/m 19,3 km/h (3 Bft) 100,00 %
24.04.2024 18:18 7,0 C 11,7 C 3,3 C 91 % 1007,6 hPa 0,2 l/m 2 min 0 min 429 W/m 22,5 km/h (4 Bft) 100,00 %
24.04.2024 18:16 6,9 C 11,7 C 3,3 C 90 % 1007,6 hPa 0,0 l/m 2 min 0 min 490 W/m 25,7 km/h (4 Bft) 97,87 %
24.04.2024 18:14 6,7 C 10,6 C 3,3 C 90 % 1007,7 hPa 0,0 l/m 2 min 0 min 528 W/m 25,7 km/h (4 Bft) 100,00 %
24.04.2024 18:12 6,6 C 8,9 C 2,2 C 89 % 1007,6 hPa 0,0 l/m 2 min 0 min 431 W/m 12,9 km/h (3 Bft) 97,87 %
24.04.2024 18:10 6,6 C 7,2 C 2,2 C 89 % 1007,6 hPa 0,0 l/m 2 min 2 min 197 W/m 19,3 km/h (3 Bft) 99,23 %
24.04.2024 18:08 6,6 C 6,7 C 2,2 C 88 % 1007,7 hPa 0,0 l/m 4 min 4 min 246 W/m 12,9 km/h (3 Bft) 97,92 %
24.04.2024 18:04 6,7 C 5,6 C 1,7 C 86 % 1007,9 hPa 0,2 l/m 0 min 2 min 86 W/m 22,5 km/h (4 Bft) 97,92 %
24.04.2024 18:02 6,8 C 5,6 C 1,7 C 85 % 1007,9 hPa 0,0 l/m 0 min 2 min 74 W/m 9,7 km/h (2 Bft) 100,00 %
24.04.2024 18:00 6,9 C 5,6 C 1,7 C 84 % 1007,8 hPa 0,2 l/m 0 min 2 min 64 W/m 16,1 km/h (3 Bft) 100,00 %
24.04.2024 17:58 7,1 C 5,6 C 1,7 C 83 % 1007,9 hPa 0,0 l/m 0 min 2 min 54 W/m 12,9 km/h (3 Bft) 97,83 %
24.04.2024 17:56 7,3 C 5,0 C 1,7 C 82 % 1007,9 hPa 0,0 l/m 0 min 2 min 38 W/m 16,1 km/h (3 Bft) 97,87 %
24.04.2024 17:54 7,7 C 5,0 C 1,7 C 81 % 1008,1 hPa 0,2 l/m 0 min 2 min 22 W/m 19,3 km/h (3 Bft) 95,74 %
24.04.2024 17:52 8,1 C 5,6 C 1,7 C 79 % 1008,2 hPa 0,2 l/m 0 min 2 min 13 W/m 16,1 km/h (3 Bft) 97,87 %
24.04.2024 17:50 8,6 C 5,6 C 1,7 C 78 % 1008,1 hPa 0,6 l/m 0 min 2 min 9 W/m 29,0 km/h (5 Bft) 95,74 %
24.04.2024 17:48 8,9 C 7,2 C 3,3 C 79 % 1008,3 hPa 0,4 l/m 0 min 2 min 10 W/m 57,9 km/h (7 Bft) 97,87 %
24.04.2024 17:46 9,2 C 8,3 C 5,0 C 78 % 1007,7 hPa 0,0 l/m 0 min 2 min 20 W/m 16,1 km/h (3 Bft) 97,87 %
24.04.2024 17:44 9,3 C 8,3 C 5,0 C 77 % 1007,5 hPa 0,0 l/m 0 min 0 min 42 W/m 12,9 km/h (3 Bft) 95,65 %
24.04.2024 17:42 9,4 C 8,9 C 5,6 C 77 % 1007,3 hPa 0,0 l/m 0 min 0 min 80 W/m 22,5 km/h (4 Bft) 97,87 %
24.04.2024 17:40 9,6 C 9,4 C 5,6 C 77 % 1007,3 hPa 0,2 l/m 0 min 0 min 144 W/m 19,3 km/h (3 Bft) 95,74 %
24.04.2024 17:38 9,8 C 10,0 C 6,1 C 77 % 1007,2 hPa 0,0 l/m 0 min 0 min 176 W/m 19,3 km/h (3 Bft) 97,87 %
24.04.2024 17:36 9,9 C 10,6 C 6,1 C 77 % 1007,3 hPa 0,0 l/m 0 min 0 min 163 W/m 16,1 km/h (3 Bft) 97,87 %
24.04.2024 17:34 10,0 C 11,1 C 6,1 C 77 % 1007,3 hPa 0,0 l/m 0 min 0 min 144 W/m 16,1 km/h (3 Bft) 97,83 %
24.04.2024 17:32 10,1 C 11,7 C 6,7 C 77 % 1007,2 hPa 0,0 l/m 2 min 0 min 304 W/m 16,1 km/h (3 Bft) 97,87 %
24.04.2024 17:30 10,1 C 12,2 C 6,7 C 77 % 1007,2 hPa 0,0 l/m 2 min 0 min 541 W/m 19,3 km/h (3 Bft) 97,87 %
24.04.2024 17:28 10,1 C 12,2 C 6,7 C 77 % 1007,3 hPa 0,0 l/m 2 min 0 min 540 W/m 19,3 km/h (3 Bft) 97,87 %
24.04.2024 17:26 10,1 C 11,1 C 6,7 C 77 % 1007,3 hPa 0,0 l/m 2 min 0 min 361 W/m 25,7 km/h (4 Bft) 93,62 %
24.04.2024 17:24 10,1 C 12,2 C 6,7 C 77 % 1007,4 hPa 0,0 l/m 2 min 0 min 623 W/m 25,7 km/h (4 Bft) 91,49 %
24.04.2024 17:22 10,1 C 11,7 C 6,7 C 76 % 1007,4 hPa 0,0 l/m 2 min 0 min 510 W/m 29,0 km/h (5 Bft) 95,65 %
24.04.2024 17:20 10,1 C 12,2 C 6,7 C 76 % 1007,4 hPa 0,0 l/m 2 min 0 min 575 W/m 19,3 km/h (3 Bft) 93,62 %
24.04.2024 17:18 10,1 C 11,1 C 6,1 C 76 % 1007,3 hPa 0,0 l/m 2 min 0 min 329 W/m 25,7 km/h (4 Bft) 95,74 %
24.04.2024 17:16 10,1 C 11,7 C 6,7 C 76 % 1007,4 hPa 0,0 l/m 2 min 0 min 480 W/m 22,5 km/h (4 Bft) 95,74 %
24.04.2024 17:14 10,1 C 12,2 C 6,7 C 76 % 1007,5 hPa 0,0 l/m 2 min 0 min 452 W/m 25,7 km/h (4 Bft) 97,87 %
24.04.2024 17:12 10,2 C 11,1 C 6,7 C 76 % 1007,6 hPa 0,0 l/m 2 min 0 min 296 W/m 16,1 km/h (3 Bft) 93,62 %
24.04.2024 17:10 10,3 C 11,1 C 6,7 C 76 % 1007,5 hPa 0,0 l/m 2 min 0 min 267 W/m 12,9 km/h (3 Bft) 95,65 %
24.04.2024 17:08 10,3 C 12,8 C 7,2 C 77 % 1007,6 hPa 0,0 l/m 2 min 0 min 530 W/m 25,7 km/h (4 Bft) 95,74 %
24.04.2024 17:06 10,3 C 13,3 C 7,2 C 78 % 1007,6 hPa 0,0 l/m 2 min 0 min 545 W/m 16,1 km/h (3 Bft) 97,87 %
24.04.2024 17:04 10,1 C 13,9 C 6,7 C 78 % 1007,6 hPa 0,0 l/m 2 min 0 min 549 W/m 22,5 km/h (4 Bft) 96,00 %
24.04.2024 17:02 9,9 C 13,9 C 6,7 C 78 % 1007,7 hPa 0,0 l/m 2 min 0 min 554 W/m 12,9 km/h (3 Bft) 95,74 %
24.04.2024 17:00 9,8 C 13,3 C 6,7 C 78 % 1007,7 hPa 0,0 l/m 2 min 0 min 558 W/m 19,3 km/h (3 Bft) 95,65 %
_ Min-Zeit 05:52 05:24 05:20 16:34 16:50 - - - - 22:08 06:32
Minimum _ 3,6 C 2,8 C 0,0 C 64 % 1004,7 hPa - - - - 0,0 km/h (0 Bft) 47,37 %
_ Max-Zeit 17:06 17:02 17:06 07:56 22:42 17:50 18:08 18:08 11:42 17:48 18:00
Maximum _ 10,3 C 13,9 C 7,2 C 95 % 1009,1 hPa 0,6 l/m 4 min 4 min 679 W/m 57,9 km/h
N-NW (7 Bft)
100,00 %
Durchschnitt _ 6,7 C 7,0 C 3,1 C 85 % 1007,7 hPa #2,2 l/m #2:48 h #20 min. 227 W/m 12,8 km/h (3 Bft) 96,99 %
© 2024 W. Hausmann